Wetterdaten: Mittwoch, 28.09.2016
Datum Zeit Temp. Aussen Temp. o. S. +5cm Feuchte Auss BlattFeu 1 Luftdruck Regen Sonnenschein Regendauer Solar Windben Empfang
28.09.2016 00:00 13,4 C 15,0 C 12,2 C 85 % 0 lf 1025,2 hPa 0,0 l/m 0 min 0 min 5 W/m 6,3 km/h (2 Bft) 92,45 %
28.09.2016 00:02 13,4 C 15,0 C 12,2 C 84 % 0 lf 1025,2 hPa 0,0 l/m 0 min 0 min 5 W/m 8,4 km/h (2 Bft) 95,65 %
28.09.2016 00:05 13,5 C 15,0 C 11,7 C 83 % 0 lf 1025,0 hPa 0,0 l/m 0 min 0 min 5 W/m 8,4 km/h (2 Bft) 95,71 %
28.09.2016 00:06 13,5 C 15,0 C 11,7 C 83 % 0 lf 1025,0 hPa 0,0 l/m 0 min 0 min 5 W/m 8,4 km/h (2 Bft) 91,30 %
28.09.2016 00:08 13,6 C 15,0 C 11,7 C 83 % 0 lf 1025,0 hPa 0,0 l/m 0 min 0 min 5 W/m 8,4 km/h (2 Bft) 97,87 %
28.09.2016 00:10 13,6 C 14,4 C 11,7 C 83 % 0 lf 1025,0 hPa 0,0 l/m 0 min 0 min 5 W/m 6,3 km/h (2 Bft) 97,87 %
28.09.2016 00:12 13,7 C 14,4 C 11,7 C 83 % 0 lf 1025,1 hPa 0,0 l/m 0 min 0 min 5 W/m 6,3 km/h (2 Bft) 93,62 %
28.09.2016 00:14 13,7 C 14,4 C 11,1 C 82 % 0 lf 1025,2 hPa 0,0 l/m 0 min 0 min 5 W/m 6,3 km/h (2 Bft) 93,62 %
28.09.2016 00:16 13,8 C 14,4 C 11,1 C 82 % 0 lf 1025,1 hPa 0,0 l/m 0 min 0 min 5 W/m 4,2 km/h (1 Bft) 97,83 %
28.09.2016 00:18 13,8 C 14,4 C 11,1 C 81 % 0 lf 1025,2 hPa 0,0 l/m 0 min 0 min 5 W/m 6,3 km/h (2 Bft) 89,36 %
28.09.2016 00:20 13,8 C 13,9 C 11,1 C 81 % 0 lf 1025,2 hPa 0,0 l/m 0 min 0 min 5 W/m 6,3 km/h (2 Bft) 94,29 %
28.09.2016 00:22 13,8 C 13,9 C 11,1 C 81 % 0 lf 1025,2 hPa 0,0 l/m 0 min 0 min 5 W/m 8,4 km/h (2 Bft) 94,34 %
28.09.2016 00:24 13,9 C 14,4 C 11,1 C 81 % 0 lf 1025,3 hPa 0,0 l/m 0 min 0 min 5 W/m 10,5 km/h (2 Bft) 97,87 %
28.09.2016 00:26 13,9 C 14,4 C 11,1 C 80 % 0 lf 1025,2 hPa 0,0 l/m 0 min 0 min 5 W/m 8,4 km/h (2 Bft) 95,74 %
28.09.2016 00:28 13,9 C 14,4 C 11,1 C 79 % 0 lf 1025,2 hPa 0,0 l/m 0 min 0 min 5 W/m 10,5 km/h (2 Bft) 93,62 %
28.09.2016 00:30 13,9 C 14,4 C 11,1 C 79 % 0 lf 1025,1 hPa 0,0 l/m 0 min 0 min 5 W/m 10,5 km/h (2 Bft) 89,13 %
28.09.2016 00:32 13,9 C 14,4 C 11,7 C 79 % 0 lf 1025,0 hPa 0,0 l/m 0 min 0 min 5 W/m 10,5 km/h (2 Bft) 93,62 %
28.09.2016 00:34 13,9 C 14,4 C 11,7 C 78 % 0 lf 1025,1 hPa 0,0 l/m 0 min 0 min 5 W/m 6,3 km/h (2 Bft) 93,62 %
28.09.2016 00:36 14,0 C 14,4 C 11,7 C 78 % 0 lf 1025,0 hPa 0,0 l/m 0 min 0 min 5 W/m 6,3 km/h (2 Bft) 93,62 %
28.09.2016 00:38 14,0 C 14,4 C 11,1 C 78 % 0 lf 1025,0 hPa 0,0 l/m 0 min 0 min 5 W/m 8,4 km/h (2 Bft) 93,62 %
28.09.2016 00:40 14,0 C 14,4 C 11,1 C 77 % 0 lf 1025,0 hPa 0,0 l/m 0 min 0 min 5 W/m 8,4 km/h (2 Bft) 95,74 %
28.09.2016 00:42 14,1 C 13,9 C 11,1 C 77 % 0 lf 1025,0 hPa 0,0 l/m 0 min 0 min 5 W/m 10,5 km/h (2 Bft) 92,86 %
28.09.2016 00:44 14,1 C 14,4 C 11,7 C 77 % 0 lf 1025,0 hPa 0,0 l/m 0 min 0 min 5 W/m 8,4 km/h (2 Bft) 95,65 %
28.09.2016 00:46 14,1 C 14,4 C 11,1 C 76 % 0 lf 1024,9 hPa 0,0 l/m 0 min 0 min 5 W/m 10,5 km/h (2 Bft) 95,74 %
28.09.2016 00:48 14,1 C 14,4 C 11,1 C 76 % 0 lf 1024,9 hPa 0,0 l/m 0 min 0 min 5 W/m 8,4 km/h (2 Bft) 93,62 %
28.09.2016 00:50 14,1 C 14,4 C 11,1 C 76 % 0 lf 1024,9 hPa 0,0 l/m 0 min 0 min 5 W/m 6,3 km/h (2 Bft) 93,62 %
28.09.2016 00:52 14,2 C 14,4 C 11,1 C 75 % 0 lf 1025,0 hPa 0,0 l/m 0 min 0 min 5 W/m 6,3 km/h (2 Bft) 95,74 %
28.09.2016 00:54 14,2 C 14,4 C 11,1 C 75 % 0 lf 1025,1 hPa 0,0 l/m 0 min 0 min 5 W/m 6,3 km/h (2 Bft) 95,74 %
28.09.2016 00:56 14,2 C 14,4 C 11,1 C 75 % 0 lf 1025,1 hPa 0,0 l/m 0 min 0 min 5 W/m 6,3 km/h (2 Bft) 97,83 %
28.09.2016 00:58 14,2 C 13,9 C 11,1 C 75 % 0 lf 1025,1 hPa 0,0 l/m 0 min 0 min 5 W/m 4,2 km/h (1 Bft) 93,62 %
28.09.2016 01:00 14,2 C 13,9 C 10,6 C 75 % 0 lf 1025,1 hPa 0,0 l/m 0 min 0 min 5 W/m 4,2 km/h (1 Bft) 97,87 %
28.09.2016 01:02 14,2 C 13,9 C 10,6 C 75 % 0 lf 1025,1 hPa 0,0 l/m 0 min 0 min 5 W/m 8,4 km/h (2 Bft) 98,00 %
28.09.2016 01:04 14,2 C 13,9 C 10,6 C 75 % 0 lf 1025,1 hPa 0,0 l/m 0 min 0 min 5 W/m 6,3 km/h (2 Bft) 95,74 %
28.09.2016 01:06 14,2 C 13,9 C 10,6 C 75 % 0 lf 1025,1 hPa 0,0 l/m 0 min 0 min 5 W/m 4,2 km/h (1 Bft) 97,92 %
28.09.2016 01:08 14,2 C 13,9 C 10,6 C 75 % 0 lf 1025,1 hPa 0,0 l/m 0 min 0 min 5 W/m 4,2 km/h (1 Bft) 97,87 %
28.09.2016 01:10 14,2 C 13,9 C 10,6 C 75 % 0 lf 1025,1 hPa 0,0 l/m 0 min 0 min 5 W/m 8,4 km/h (2 Bft) 95,74 %
28.09.2016 01:12 14,2 C 13,9 C 10,6 C 75 % 0 lf 1025,1 hPa 0,0 l/m 0 min 0 min 5 W/m 6,3 km/h (2 Bft) 95,74 %
28.09.2016 01:14 14,2 C 13,9 C 10,6 C 75 % 0 lf 1025,1 hPa 0,0 l/m 0 min 0 min 5 W/m 6,3 km/h (2 Bft) 91,49 %
28.09.2016 01:16 14,2 C 13,9 C 10,6 C 75 % 0 lf 1025,1 hPa 0,0 l/m 0 min 0 min 5 W/m 10,5 km/h (2 Bft) 95,74 %
28.09.2016 01:18 14,2 C 13,9 C 10,6 C 75 % 0 lf 1025,1 hPa 0,0 l/m 0 min 0 min 5 W/m 8,4 km/h (2 Bft) 97,83 %
28.09.2016 01:20 14,2 C 13,9 C 10,6 C 75 % 0 lf 1025,0 hPa 0,0 l/m 0 min 0 min 5 W/m 8,4 km/h (2 Bft) 100,00 %
28.09.2016 01:22 14,1 C 13,9 C 10,6 C 75 % 0 lf 1024,9 hPa 0,0 l/m 0 min 0 min 5 W/m 12,6 km/h (3 Bft) 93,62 %
28.09.2016 01:24 14,1 C 13,9 C 10,6 C 75 % 0 lf 1024,9 hPa 0,0 l/m 0 min 0 min 5 W/m 8,4 km/h (2 Bft) 95,74 %
28.09.2016 01:26 14,1 C 13,9 C 10,6 C 75 % 0 lf 1024,9 hPa 0,0 l/m 0 min 0 min 5 W/m 10,5 km/h (2 Bft) 97,87 %
28.09.2016 01:28 14,1 C 13,9 C 10,6 C 75 % 0 lf 1024,9 hPa 0,0 l/m 0 min 0 min 5 W/m 8,4 km/h (2 Bft) 100,00 %
28.09.2016 01:30 14,0 C 13,9 C 10,6 C 75 % 0 lf 1024,8 hPa 0,0 l/m 0 min 0 min 5 W/m 8,4 km/h (2 Bft) 97,87 %
28.09.2016 01:32 14,0 C 13,9 C 11,1 C 75 % 0 lf 1024,8 hPa 0,0 l/m 0 min 0 min 5 W/m 8,4 km/h (2 Bft) 95,74 %
28.09.2016 01:34 14,0 C 13,9 C 11,1 C 75 % 0 lf 1024,9 hPa 0,0 l/m 0 min 0 min 5 W/m 8,4 km/h (2 Bft) 97,87 %
28.09.2016 01:36 14,0 C 13,9 C 11,1 C 75 % 0 lf 1024,8 hPa 0,0 l/m 0 min 0 min 5 W/m 10,5 km/h (2 Bft) 95,74 %
28.09.2016 01:38 14,0 C 13,9 C 11,7 C 75 % 0 lf 1024,8 hPa 0,0 l/m 0 min 0 min 5 W/m 6,3 km/h (2 Bft) 97,87 %
28.09.2016 01:40 13,9 C 13,9 C 11,1 C 75 % 0 lf 1024,8 hPa 0,0 l/m 0 min 0 min 5 W/m 8,4 km/h (2 Bft) 93,48 %
28.09.2016 01:42 13,9 C 13,9 C 11,1 C 75 % 0 lf 1024,8 hPa 0,0 l/m 0 min 0 min 5 W/m 8,4 km/h (2 Bft) 95,74 %
28.09.2016 01:44 13,9 C 14,4 C 11,1 C 75 % 0 lf 1024,8 hPa 0,0 l/m 0 min 0 min 5 W/m 8,4 km/h (2 Bft) 95,74 %
28.09.2016 01:46 13,9 C 14,4 C 11,7 C 75 % 0 lf 1024,8 hPa 0,0 l/m 0 min 0 min 5 W/m 12,6 km/h (3 Bft) 95,74 %
28.09.2016 01:48 14,0 C 14,4 C 12,2 C 74 % 0 lf 1024,8 hPa 0,0 l/m 0 min 0 min 5 W/m 16,7 km/h (3 Bft) 95,74 %
28.09.2016 01:50 14,0 C 14,4 C 12,2 C 74 % 0 lf 1024,7 hPa 0,0 l/m 0 min 0 min 5 W/m 14,6 km/h (3 Bft) 97,87 %
28.09.2016 01:52 14,1 C 14,4 C 12,2 C 74 % 0 lf 1024,7 hPa 0,0 l/m 0 min 0 min 5 W/m 12,6 km/h (3 Bft) 97,83 %
28.09.2016 01:54 14,1 C 14,4 C 12,2 C 74 % 0 lf 1024,8 hPa 0,0 l/m 0 min 0 min 5 W/m 12,6 km/h (3 Bft) 97,87 %
28.09.2016 01:56 14,2 C 14,4 C 12,2 C 74 % 0 lf 1024,8 hPa 0,0 l/m 0 min 0 min 5 W/m 12,6 km/h (3 Bft) 97,87 %
28.09.2016 01:58 14,2 C 14,4 C 12,2 C 74 % 0 lf 1024,7 hPa 0,0 l/m 0 min 0 min 5 W/m 12,6 km/h (3 Bft) 98,00 %
28.09.2016 02:00 14,2 C 14,4 C 11,7 C 74 % 0 lf 1024,7 hPa 0,0 l/m 0 min 0 min 5 W/m 6,3 km/h (2 Bft) 95,74 %
28.09.2016 02:02 14,2 C 14,4 C 11,7 C 74 % 0 lf 1024,7 hPa 0,0 l/m 0 min 0 min 5 W/m 8,4 km/h (2 Bft) 100,00 %
28.09.2016 02:04 14,2 C 13,9 C 11,7 C 74 % 0 lf 1024,7 hPa 0,0 l/m 0 min 0 min 5 W/m 8,4 km/h (2 Bft) 100,00 %
28.09.2016 02:06 14,2 C 13,9 C 11,7 C 74 % 0 lf 1024,7 hPa 0,0 l/m 0 min 0 min 5 W/m 10,5 km/h (2 Bft) 100,00 %
28.09.2016 02:08 14,2 C 13,9 C 11,7 C 74 % 0 lf 1024,7 hPa 0,0 l/m 0 min 0 min 5 W/m 8,4 km/h (2 Bft) 100,00 %
28.09.2016 02:10 14,2 C 13,9 C 11,7 C 74 % 0 lf 1024,7 hPa 0,0 l/m 0 min 0 min 5 W/m 8,4 km/h (2 Bft) 97,87 %
28.09.2016 02:12 14,2 C 13,9 C 11,7 C 74 % 0 lf 1024,7 hPa 0,0 l/m 0 min 0 min 5 W/m 8,4 km/h (2 Bft) 97,87 %
28.09.2016 02:14 14,2 C 14,4 C 11,7 C 74 % 0 lf 1024,8 hPa 0,0 l/m 0 min 0 min 5 W/m 10,5 km/h (2 Bft) 95,65 %
28.09.2016 02:16 14,2 C 14,4 C 11,7 C 74 % 0 lf 1024,8 hPa 0,0 l/m 0 min 0 min 5 W/m 10,5 km/h (2 Bft) 93,62 %
28.09.2016 02:18 14,2 C 13,9 C 11,7 C 74 % 0 lf 1024,8 hPa 0,0 l/m 0 min 0 min 5 W/m 6,3 km/h (2 Bft) 93,62 %
28.09.2016 02:20 14,2 C 13,9 C 11,7 C 74 % 0 lf 1024,8 hPa 0,0 l/m 0 min 0 min 5 W/m 6,3 km/h (2 Bft) 97,87 %
28.09.2016 02:22 14,2 C 13,9 C 11,7 C 74 % 0 lf 1024,8 hPa 0,0 l/m 0 min 0 min 5 W/m 6,3 km/h (2 Bft) 97,14 %
28.09.2016 02:24 14,2 C 13,9 C 11,7 C 74 % 0 lf 1024,8 hPa 0,0 l/m 0 min 0 min 5 W/m 10,5 km/h (2 Bft) 95,74 %
28.09.2016 02:26 14,2 C 13,9 C 11,7 C 74 % 0 lf 1024,8 hPa 0,0 l/m 0 min 0 min 5 W/m 10,5 km/h (2 Bft) 95,74 %
28.09.2016 02:28 14,2 C 13,9 C 11,7 C 74 % 0 lf 1024,8 hPa 0,0 l/m 0 min 0 min 5 W/m 8,4 km/h (2 Bft) 97,87 %
28.09.2016 02:30 14,2 C 14,4 C 12,2 C 74 % 0 lf 1024,8 hPa 0,0 l/m 0 min 0 min 5 W/m 8,4 km/h (2 Bft) 97,83 %
28.09.2016 02:32 14,2 C 13,9 C 12,2 C 74 % 0 lf 1024,8 hPa 0,0 l/m 0 min 0 min 5 W/m 8,4 km/h (2 Bft) 97,87 %
28.09.2016 02:34 14,2 C 14,4 C 12,2 C 74 % 0 lf 1024,7 hPa 0,0 l/m 0 min 0 min 5 W/m 12,6 km/h (3 Bft) 97,87 %
28.09.2016 02:36 14,2 C 14,4 C 12,2 C 74 % 0 lf 1024,6 hPa 0,0 l/m 0 min 0 min 5 W/m 8,4 km/h (2 Bft) 93,10 %
28.09.2016 02:38 14,2 C 14,4 C 12,2 C 74 % 0 lf 1024,6 hPa 0,0 l/m 0 min 0 min 5 W/m 12,6 km/h (3 Bft) 97,83 %
28.09.2016 02:40 14,2 C 14,4 C 12,2 C 74 % 0 lf 1024,6 hPa 0,0 l/m 0 min 0 min 5 W/m 10,5 km/h (2 Bft) 91,49 %
28.09.2016 02:42 14,2 C 14,4 C 12,2 C 74 % 0 lf 1024,4 hPa 0,0 l/m 0 min 0 min 5 W/m 8,4 km/h (2 Bft) 95,74 %
28.09.2016 02:44 14,2 C 14,4 C 12,2 C 74 % 0 lf 1024,4 hPa 0,0 l/m 0 min 0 min 5 W/m 14,6 km/h (3 Bft) 97,87 %
28.09.2016 02:46 14,2 C 14,4 C 12,2 C 74 % 0 lf 1024,4 hPa 0,0 l/m 0 min 0 min 5 W/m 12,6 km/h (3 Bft) 97,87 %
28.09.2016 02:48 14,2 C 14,4 C 12,2 C 74 % 0 lf 1024,4 hPa 0,0 l/m 0 min 0 min 5 W/m 12,6 km/h (3 Bft) 95,74 %
28.09.2016 02:50 14,2 C 14,4 C 12,2 C 73 % 0 lf 1024,4 hPa 0,0 l/m 0 min 0 min 5 W/m 14,6 km/h (3 Bft) 95,65 %
28.09.2016 02:52 14,2 C 14,4 C 12,2 C 73 % 0 lf 1024,4 hPa 0,0 l/m 0 min 0 min 5 W/m 10,5 km/h (2 Bft) 93,62 %
28.09.2016 02:54 14,2 C 14,4 C 12,2 C 73 % 0 lf 1024,4 hPa 0,0 l/m 0 min 0 min 5 W/m 10,5 km/h (2 Bft) 95,74 %
28.09.2016 02:56 14,2 C 14,4 C 12,2 C 73 % 0 lf 1024,4 hPa 0,0 l/m 0 min 0 min 5 W/m 6,3 km/h (2 Bft) 93,62 %
28.09.2016 02:58 14,2 C 14,4 C 12,2 C 73 % 0 lf 1024,4 hPa 0,0 l/m 0 min 0 min 5 W/m 14,6 km/h (3 Bft) 93,62 %
28.09.2016 03:00 14,2 C 14,4 C 12,2 C 73 % 0 lf 1024,3 hPa 0,0 l/m 0 min 0 min 5 W/m 12,6 km/h (3 Bft) 95,74 %
28.09.2016 03:02 14,2 C 14,4 C 12,2 C 72 % 0 lf 1024,4 hPa 0,0 l/m 0 min 0 min 5 W/m 10,5 km/h (2 Bft) 95,74 %
28.09.2016 03:04 14,2 C 14,4 C 12,2 C 72 % 0 lf 1024,5 hPa 0,0 l/m 0 min 0 min 5 W/m 12,6 km/h (3 Bft) 95,74 %
28.09.2016 03:06 14,2 C 14,4 C 12,2 C 72 % 0 lf 1024,5 hPa 0,0 l/m 0 min 0 min 5 W/m 6,3 km/h (2 Bft) 94,74 %
28.09.2016 03:08 14,2 C 14,4 C 12,2 C 72 % 0 lf 1024,6 hPa 0,0 l/m 0 min 0 min 5 W/m 6,3 km/h (2 Bft) 95,74 %
28.09.2016 03:10 14,2 C 14,4 C 11,7 C 72 % 0 lf 1024,6 hPa 0,0 l/m 0 min 0 min 5 W/m 6,3 km/h (2 Bft) 95,74 %
28.09.2016 03:12 14,2 C 14,4 C 11,7 C 72 % 0 lf 1024,7 hPa 0,0 l/m 0 min 0 min 5 W/m 8,4 km/h (2 Bft) 95,74 %
28.09.2016 03:14 14,2 C 14,4 C 11,7 C 72 % 0 lf 1024,6 hPa 0,0 l/m 0 min 0 min 5 W/m 8,4 km/h (2 Bft) 97,87 %
28.09.2016 03:16 14,2 C 14,4 C 11,7 C 72 % 0 lf 1024,6 hPa 0,0 l/m 0 min 0 min 5 W/m 6,3 km/h (2 Bft) 93,48 %
28.09.2016 03:18 14,2 C 14,4 C 11,7 C 71 % 0 lf 1024,6 hPa 0,0 l/m 0 min 0 min 5 W/m 8,4 km/h (2 Bft) 91,49 %
28.09.2016 03:20 14,2 C 14,4 C 11,7 C 71 % 0 lf 1024,5 hPa 0,0 l/m 0 min 0 min 5 W/m 10,5 km/h (2 Bft) 95,74 %
28.09.2016 03:22 14,2 C 14,4 C 12,2 C 71 % 0 lf 1024,5 hPa 0,0 l/m 0 min 0 min 5 W/m 12,6 km/h (3 Bft) 95,74 %
28.09.2016 03:24 14,2 C 14,4 C 12,2 C 71 % 0 lf 1024,5 hPa 0,0 l/m 0 min 0 min 5 W/m 6,3 km/h (2 Bft) 91,49 %
28.09.2016 03:26 14,2 C 14,4 C 12,2 C 71 % 0 lf 1024,5 hPa 0,0 l/m 0 min 0 min 5 W/m 12,6 km/h (3 Bft) 93,62 %
28.09.2016 03:28 14,2 C 14,4 C 12,2 C 71 % 0 lf 1024,5 hPa 0,0 l/m 0 min 0 min 5 W/m 12,6 km/h (3 Bft) 91,30 %
28.09.2016 03:30 14,2 C 14,4 C 12,2 C 71 % 0 lf 1024,5 hPa 0,0 l/m 0 min 0 min 5 W/m 12,6 km/h (3 Bft) 93,62 %
28.09.2016 03:32 14,2 C 14,4 C 12,2 C 71 % 0 lf 1024,5 hPa 0,0 l/m 0 min 0 min 5 W/m 10,5 km/h (2 Bft) 93,62 %
28.09.2016 03:34 14,2 C 14,4 C 12,2 C 71 % 0 lf 1024,4 hPa 0,0 l/m 0 min 0 min 5 W/m 12,6 km/h (3 Bft) 89,36 %
28.09.2016 03:36 14,2 C 14,4 C 12,2 C 71 % 0 lf 1024,5 hPa 0,0 l/m 0 min 0 min 5 W/m 14,6 km/h (3 Bft) 90,74 %
28.09.2016 03:38 14,2 C 14,4 C 12,2 C 71 % 0 lf 1024,6 hPa 0,0 l/m 0 min 0 min 5 W/m 14,6 km/h (3 Bft) 93,48 %
28.09.2016 03:40 14,2 C 14,4 C 12,2 C 71 % 0 lf 1024,6 hPa 0,0 l/m 0 min 0 min 5 W/m 12,6 km/h (3 Bft) 93,62 %
28.09.2016 03:42 14,2 C 14,4 C 12,2 C 71 % 0 lf 1024,5 hPa 0,0 l/m 0 min 0 min 5 W/m 12,6 km/h (3 Bft) 89,36 %
28.09.2016 03:44 14,3 C 14,4 C 12,8 C 71 % 0 lf 1024,5 hPa 0,0 l/m 0 min 0 min 5 W/m 10,5 km/h (2 Bft) 91,49 %
28.09.2016 03:46 14,3 C 14,4 C 12,8 C 71 % 0 lf 1024,5 hPa 0,0 l/m 0 min 0 min 5 W/m 10,5 km/h (2 Bft) 95,74 %
28.09.2016 03:48 14,3 C 14,4 C 12,8 C 71 % 0 lf 1024,5 hPa 0,0 l/m 0 min 0 min 5 W/m 10,5 km/h (2 Bft) 95,65 %
28.09.2016 03:50 14,3 C 14,4 C 12,8 C 71 % 0 lf 1024,4 hPa 0,0 l/m 0 min 0 min 5 W/m 10,5 km/h (2 Bft) 91,49 %
28.09.2016 03:52 14,3 C 15,0 C 12,8 C 71 % 0 lf 1024,4 hPa 0,0 l/m 0 min 0 min 5 W/m 10,5 km/h (2 Bft) 95,74 %
28.09.2016 03:54 14,3 C 15,0 C 12,8 C 71 % 0 lf 1024,6 hPa 0,0 l/m 0 min 0 min 5 W/m 8,4 km/h (2 Bft) 95,74 %
28.09.2016 03:56 14,3 C 15,0 C 12,8 C 71 % 0 lf 1024,6 hPa 0,0 l/m 0 min 0 min 5 W/m 10,5 km/h (2 Bft) 95,74 %
28.09.2016 03:58 14,4 C 15,0 C 12,8 C 71 % 0 lf 1024,5 hPa 0,0 l/m 0 min 0 min 5 W/m 8,4 km/h (2 Bft) 93,62 %
28.09.2016 04:00 14,4 C 15,0 C 12,8 C 71 % 0 lf 1024,4 hPa 0,0 l/m 0 min 0 min 5 W/m 16,7 km/h (3 Bft) 95,65 %
28.09.2016 04:02 14,4 C 15,0 C 12,8 C 71 % 0 lf 1024,4 hPa 0,0 l/m 0 min 0 min 5 W/m 10,5 km/h (2 Bft) 96,67 %
28.09.2016 04:04 14,4 C 15,0 C 13,3 C 70 % 0 lf 1024,4 hPa 0,0 l/m 0 min 0 min 5 W/m 12,6 km/h (3 Bft) 91,49 %
28.09.2016 04:06 14,5 C 15,0 C 13,3 C 70 % 0 lf 1024,4 hPa 0,0 l/m 0 min 0 min 5 W/m 12,6 km/h (3 Bft) 97,30 %
28.09.2016 04:08 14,6 C 15,6 C 13,3 C 70 % 0 lf 1024,3 hPa 0,0 l/m 0 min 0 min 5 W/m 12,6 km/h (3 Bft) 97,87 %
28.09.2016 04:10 14,6 C 15,0 C 13,3 C 70 % 0 lf 1024,4 hPa 0,0 l/m 0 min 0 min 5 W/m 10,5 km/h (2 Bft) 97,87 %
28.09.2016 04:12 14,6 C 15,0 C 13,3 C 70 % 0 lf 1024,3 hPa 0,0 l/m 0 min 0 min 5 W/m 14,6 km/h (3 Bft) 100,00 %
28.09.2016 04:14 14,7 C 15,0 C 13,3 C 70 % 0 lf 1024,4 hPa 0,0 l/m 0 min 0 min 5 W/m 14,6 km/h (3 Bft) 97,83 %
28.09.2016 04:16 14,7 C 15,6 C 13,3 C 70 % 0 lf 1024,4 hPa 0,0 l/m 0 min 0 min 5 W/m 12,6 km/h (3 Bft) 97,87 %
28.09.2016 04:18 14,7 C 15,6 C 13,3 C 70 % 0 lf 1024,4 hPa 0,0 l/m 0 min 0 min 5 W/m 10,5 km/h (2 Bft) 100,00 %
28.09.2016 04:20 14,8 C 15,6 C 13,3 C 70 % 0 lf 1024,4 hPa 0,0 l/m 0 min 0 min 5 W/m 10,5 km/h (2 Bft) 93,62 %
28.09.2016 04:22 14,8 C 15,6 C 13,3 C 69 % 0 lf 1024,4 hPa 0,0 l/m 0 min 0 min 5 W/m 14,6 km/h (3 Bft) 100,00 %
28.09.2016 04:24 14,8 C 15,6 C 13,9 C 69 % 0 lf 1024,5 hPa 0,0 l/m 0 min 0 min 5 W/m 10,5 km/h (2 Bft) 97,87 %
28.09.2016 04:26 14,9 C 15,6 C 13,9 C 69 % 0 lf 1024,5 hPa 0,0 l/m 0 min 0 min 5 W/m 14,6 km/h (3 Bft) 100,00 %
28.09.2016 04:28 14,9 C 15,6 C 13,9 C 69 % 0 lf 1024,4 hPa 0,0 l/m 0 min 0 min 5 W/m 16,7 km/h (3 Bft) 100,00 %
28.09.2016 04:30 14,9 C 15,6 C 13,9 C 69 % 0 lf 1024,5 hPa 0,0 l/m 0 min 0 min 5 W/m 14,6 km/h (3 Bft) 97,87 %
28.09.2016 04:32 14,9 C 15,6 C 13,9 C 69 % 0 lf 1024,5 hPa 0,0 l/m 0 min 0 min 5 W/m 14,6 km/h (3 Bft) 100,00 %
28.09.2016 04:34 15,0 C 15,6 C 13,9 C 69 % 0 lf 1024,4 hPa 0,0 l/m 0 min 0 min 5 W/m 16,7 km/h (3 Bft) 100,00 %
28.09.2016 04:36 15,1 C 15,6 C 13,9 C 69 % 0 lf 1024,4 hPa 0,0 l/m 0 min 0 min 5 W/m 14,6 km/h (3 Bft) 98,15 %
28.09.2016 04:38 15,1 C 15,6 C 13,9 C 69 % 0 lf 1024,5 hPa 0,0 l/m 0 min 0 min 5 W/m 12,6 km/h (3 Bft) 97,87 %
28.09.2016 04:40 15,1 C 15,6 C 13,9 C 68 % 0 lf 1024,4 hPa 0,0 l/m 0 min 0 min 5 W/m 10,5 km/h (2 Bft) 100,00 %
28.09.2016 04:42 15,2 C 15,6 C 13,9 C 68 % 0 lf 1024,3 hPa 0,0 l/m 0 min 0 min 5 W/m 8,4 km/h (2 Bft) 97,87 %
28.09.2016 04:44 15,2 C 15,6 C 13,9 C 68 % 0 lf 1024,3 hPa 0,0 l/m 0 min 0 min 5 W/m 14,6 km/h (3 Bft) 100,00 %
28.09.2016 04:46 15,2 C 15,6 C 13,9 C 68 % 0 lf 1024,3 hPa 0,0 l/m 0 min 0 min 5 W/m 12,6 km/h (3 Bft) 100,00 %
28.09.2016 04:48 15,2 C 15,6 C 13,9 C 68 % 0 lf 1024,2 hPa 0,0 l/m 0 min 0 min 5 W/m 23,0 km/h (4 Bft) 100,00 %
28.09.2016 04:50 15,3 C 15,6 C 13,9 C 68 % 0 lf 1024,2 hPa 0,0 l/m 0 min 0 min 5 W/m 23,0 km/h (4 Bft) 97,87 %
28.09.2016 04:52 15,3 C 15,6 C 13,9 C 68 % 0 lf 1024,2 hPa 0,0 l/m 0 min 0 min 5 W/m 14,6 km/h (3 Bft) 97,87 %
28.09.2016 04:54 15,3 C 15,6 C 13,9 C 68 % 0 lf 1024,3 hPa 0,0 l/m 0 min 0 min 5 W/m 14,6 km/h (3 Bft) 100,00 %
28.09.2016 04:56 15,3 C 15,6 C 13,9 C 68 % 0 lf 1024,3 hPa 0,0 l/m 0 min 0 min 5 W/m 14,6 km/h (3 Bft) 97,87 %
28.09.2016 04:58 15,4 C 16,1 C 13,9 C 68 % 0 lf 1024,3 hPa 0,0 l/m 0 min 0 min 5 W/m 18,8 km/h (3 Bft) 100,00 %
28.09.2016 05:00 15,4 C 15,6 C 13,9 C 67 % 0 lf 1024,4 hPa 0,0 l/m 0 min 0 min 5 W/m 14,6 km/h (3 Bft) 93,62 %
28.09.2016 05:02 15,4 C 15,6 C 13,9 C 68 % 0 lf 1024,3 hPa 0,0 l/m 0 min 0 min 5 W/m 20,9 km/h (4 Bft) 97,92 %
28.09.2016 05:04 15,5 C 15,6 C 13,9 C 68 % 0 lf 1024,2 hPa 0,0 l/m 0 min 0 min 0 W/m 16,7 km/h (3 Bft) 97,87 %
28.09.2016 05:06 15,5 C 15,6 C 13,9 C 68 % 0 lf 1024,2 hPa 0,0 l/m 0 min 0 min 0 W/m 14,6 km/h (3 Bft) 100,00 %
28.09.2016 05:08 15,5 C 15,6 C 13,9 C 67 % 0 lf 1024,2 hPa 0,0 l/m 0 min 0 min 0 W/m 12,6 km/h (3 Bft) 100,00 %
28.09.2016 05:10 15,5 C 15,6 C 13,3 C 68 % 0 lf 1024,1 hPa 0,0 l/m 0 min 0 min 0 W/m 8,4 km/h (2 Bft) 100,00 %
28.09.2016 05:12 15,5 C 15,6 C 13,3 C 68 % 0 lf 1024,2 hPa 0,0 l/m 0 min 0 min 0 W/m 8,4 km/h (2 Bft) 100,00 %
28.09.2016 05:14 15,5 C 15,6 C 13,3 C 68 % 0 lf 1024,1 hPa 0,0 l/m 0 min 0 min 0 W/m 14,6 km/h (3 Bft) 95,74 %
28.09.2016 05:16 15,5 C 15,6 C 13,3 C 67 % 0 lf 1024,1 hPa 0,0 l/m 0 min 0 min 0 W/m 16,7 km/h (3 Bft) 97,87 %
28.09.2016 05:18 15,5 C 15,6 C 13,3 C 67 % 0 lf 1024,2 hPa 0,0 l/m 0 min 0 min 0 W/m 6,3 km/h (2 Bft) 95,74 %
28.09.2016 05:20 15,5 C 15,6 C 13,3 C 67 % 0 lf 1024,2 hPa 0,0 l/m 0 min 0 min 0 W/m 14,6 km/h (3 Bft) 97,87 %
28.09.2016 05:22 15,5 C 15,6 C 12,8 C 67 % 0 lf 1024,1 hPa 0,0 l/m 0 min 0 min 0 W/m 8,4 km/h (2 Bft) 100,00 %
28.09.2016 05:24 15,5 C 15,6 C 12,8 C 67 % 0 lf 1024,1 hPa 0,0 l/m 0 min 0 min 0 W/m 14,6 km/h (3 Bft) 100,00 %
28.09.2016 05:26 15,5 C 15,6 C 13,3 C 67 % 0 lf 1024,1 hPa 0,0 l/m 0 min 0 min 0 W/m 14,6 km/h (3 Bft) 95,74 %
28.09.2016 05:28 15,5 C 15,6 C 13,3 C 67 % 0 lf 1024,0 hPa 0,0 l/m 0 min 0 min 0 W/m 16,7 km/h (3 Bft) 97,87 %
28.09.2016 05:30 15,4 C 15,6 C 13,3 C 67 % 0 lf 1024,0 hPa 0,0 l/m 0 min 0 min 0 W/m 16,7 km/h (3 Bft) 93,62 %
28.09.2016 05:32 15,4 C 15,6 C 13,3 C 67 % 0 lf 1023,9 hPa 0,0 l/m 0 min 0 min 0 W/m 14,6 km/h (3 Bft) 97,87 %
28.09.2016 05:34 15,4 C 15,6 C 12,8 C 67 % 0 lf 1023,9 hPa 0,0 l/m 0 min 0 min 0 W/m 12,6 km/h (3 Bft) 97,83 %
28.09.2016 05:36 15,4 C 15,0 C 12,8 C 67 % 0 lf 1023,9 hPa 0,0 l/m 0 min 0 min 0 W/m 16,7 km/h (3 Bft) 95,74 %
28.09.2016 05:38 15,4 C 15,0 C 13,3 C 68 % 0 lf 1023,9 hPa 0,0 l/m 0 min 0 min 0 W/m 14,6 km/h (3 Bft) 95,74 %
28.09.2016 05:40 15,4 C 15,0 C 13,3 C 67 % 0 lf 1023,9 hPa 0,0 l/m 0 min 0 min 0 W/m 14,6 km/h (3 Bft) 95,74 %
28.09.2016 05:42 15,4 C 15,0 C 13,3 C 68 % 0 lf 1023,9 hPa 0,0 l/m 0 min 0 min 0 W/m 14,6 km/h (3 Bft) 95,74 %
28.09.2016 05:44 15,4 C 15,0 C 13,3 C 68 % 0 lf 1023,8 hPa 0,0 l/m 0 min 0 min 0 W/m 16,7 km/h (3 Bft) 93,62 %
28.09.2016 05:46 15,4 C 15,6 C 13,3 C 68 % 0 lf 1023,8 hPa 0,0 l/m 0 min 0 min 0 W/m 18,8 km/h (3 Bft) 95,65 %
28.09.2016 05:48 15,4 C 15,6 C 13,3 C 68 % 0 lf 1023,9 hPa 0,0 l/m 0 min 0 min 0 W/m 14,6 km/h (3 Bft) 93,62 %
28.09.2016 05:50 15,4 C 15,6 C 13,3 C 67 % 0 lf 1023,9 hPa 0,0 l/m 0 min 0 min 0 W/m 14,6 km/h (3 Bft) 97,87 %
28.09.2016 05:52 15,4 C 15,0 C 13,3 C 67 % 0 lf 1023,9 hPa 0,0 l/m 0 min 0 min 0 W/m 12,6 km/h (3 Bft) 91,49 %
28.09.2016 05:54 15,4 C 15,0 C 13,3 C 67 % 0 lf 1023,9 hPa 0,0 l/m 0 min 0 min 0 W/m 16,7 km/h (3 Bft) 95,74 %
28.09.2016 05:56 15,4 C 15,0 C 13,3 C 67 % 0 lf 1023,8 hPa 0,0 l/m 0 min 0 min 0 W/m 14,6 km/h (3 Bft) 89,36 %
28.09.2016 05:58 15,4 C 15,6 C 13,3 C 67 % 0 lf 1023,8 hPa 0,0 l/m 0 min 0 min 0 W/m 20,9 km/h (4 Bft) 95,65 %
28.09.2016 06:00 15,4 C 15,6 C 13,3 C 67 % 0 lf 1023,8 hPa 0,0 l/m 0 min 0 min 0 W/m 12,6 km/h (3 Bft) 93,62 %
28.09.2016 06:02 15,4 C 15,6 C 13,3 C 68 % 0 lf 1023,7 hPa 0,0 l/m 0 min 0 min 0 W/m 14,6 km/h (3 Bft) 93,75 %
28.09.2016 06:06 15,4 C 15,6 C 13,9 C 68 % 0 lf 1023,7 hPa 0,0 l/m 0 min 0 min 0 W/m 20,9 km/h (4 Bft) 94,74 %
28.09.2016 06:08 15,4 C 15,6 C 13,9 C 67 % 0 lf 1023,7 hPa 0,0 l/m 0 min 0 min 0 W/m 18,8 km/h (3 Bft) 93,48 %
28.09.2016 06:10 15,4 C 15,6 C 13,9 C 68 % 0 lf 1023,7 hPa 0,0 l/m 0 min 0 min 0 W/m 14,6 km/h (3 Bft) 93,62 %
28.09.2016 06:12 15,4 C 15,6 C 13,9 C 68 % 0 lf 1023,6 hPa 0,0 l/m 0 min 0 min 0 W/m 10,5 km/h (2 Bft) 91,49 %
28.09.2016 06:14 15,4 C 15,6 C 13,3 C 68 % 0 lf 1023,6 hPa 0,0 l/m 0 min 0 min 0 W/m 18,8 km/h (3 Bft) 93,62 %
28.09.2016 06:16 15,4 C 15,6 C 13,9 C 68 % 0 lf 1023,6 hPa 0,0 l/m 0 min 0 min 0 W/m 18,8 km/h (3 Bft) 93,62 %
28.09.2016 06:18 15,4 C 15,6 C 13,9 C 68 % 0 lf 1023,5 hPa 0,0 l/m 0 min 0 min 0 W/m 16,7 km/h (3 Bft) 89,36 %
28.09.2016 06:20 15,4 C 15,6 C 13,3 C 68 % 0 lf 1023,4 hPa 0,0 l/m 0 min 0 min 0 W/m 16,7 km/h (3 Bft) 93,48 %
28.09.2016 06:22 15,5 C 15,6 C 13,9 C 68 % 0 lf 1023,5 hPa 0,0 l/m 0 min 0 min 0 W/m 14,6 km/h (3 Bft) 93,62 %
28.09.2016 06:24 15,4 C 15,6 C 13,3 C 68 % 0 lf 1023,4 hPa 0,0 l/m 0 min 0 min 0 W/m 12,6 km/h (3 Bft) 91,49 %
28.09.2016 06:26 15,5 C 15,6 C 13,3 C 68 % 0 lf 1023,5 hPa 0,0 l/m 0 min 0 min 0 W/m 18,8 km/h (3 Bft) 89,36 %
28.09.2016 06:28 15,5 C 15,6 C 13,3 C 68 % 0 lf 1023,6 hPa 0,0 l/m 0 min 0 min 0 W/m 10,5 km/h (2 Bft) 93,62 %
28.09.2016 06:30 15,5 C 15,6 C 13,3 C 68 % 0 lf 1023,6 hPa 0,0 l/m 0 min 0 min 0 W/m 12,6 km/h (3 Bft) 93,62 %
28.09.2016 06:32 15,5 C 15,6 C 13,3 C 68 % 0 lf 1023,5 hPa 0,0 l/m 0 min 0 min 0 W/m 16,7 km/h (3 Bft) 89,36 %
28.09.2016 06:34 15,5 C 15,6 C 13,3 C 68 % 0 lf 1023,6 hPa 0,0 l/m 0 min 0 min 0 W/m 18,8 km/h (3 Bft) 89,36 %
28.09.2016 06:36 15,4 C 15,6 C 13,3 C 68 % 0 lf 1023,6 hPa 0,0 l/m 0 min 0 min 0 W/m 16,7 km/h (3 Bft) 92,11 %
28.09.2016 06:38 15,4 C 15,6 C 13,3 C 68 % 0 lf 1023,5 hPa 0,0 l/m 0 min 0 min 0 W/m 14,6 km/h (3 Bft) 93,62 %
28.09.2016 06:40 15,4 C 15,0 C 13,3 C 68 % 0 lf 1023,6 hPa 0,0 l/m 0 min 0 min 0 W/m 14,6 km/h (3 Bft) 91,49 %
28.09.2016 06:42 15,4 C 15,0 C 12,8 C 68 % 0 lf 1023,7 hPa 0,0 l/m 0 min 0 min 0 W/m 14,6 km/h (3 Bft) 93,62 %
28.09.2016 06:44 15,4 C 15,0 C 12,8 C 68 % 0 lf 1023,6 hPa 0,0 l/m 0 min 0 min 0 W/m 10,5 km/h (2 Bft) 91,49 %
28.09.2016 06:46 15,4 C 15,0 C 12,8 C 68 % 0 lf 1023,6 hPa 0,0 l/m 0 min 0 min 0 W/m 14,6 km/h (3 Bft) 93,48 %
28.09.2016 06:48 15,4 C 15,0 C 12,8 C 68 % 0 lf 1023,6 hPa 0,0 l/m 0 min 0 min 0 W/m 12,6 km/h (3 Bft) 95,74 %
28.09.2016 06:50 15,4 C 15,0 C 12,8 C 68 % 0 lf 1023,6 hPa 0,0 l/m 0 min 0 min 0 W/m 14,6 km/h (3 Bft) 91,49 %
28.09.2016 06:52 15,3 C 15,0 C 12,8 C 68 % 0 lf 1023,6 hPa 0,0 l/m 0 min 0 min 0 W/m 14,6 km/h (3 Bft) 95,74 %
28.09.2016 06:54 15,3 C 15,0 C 12,8 C 69 % 0 lf 1023,5 hPa 0,0 l/m 0 min 0 min 0 W/m 14,6 km/h (3 Bft) 95,74 %
28.09.2016 06:56 15,3 C 15,0 C 13,3 C 69 % 0 lf 1023,6 hPa 0,0 l/m 0 min 0 min 0 W/m 12,6 km/h (3 Bft) 97,87 %
28.09.2016 06:58 15,3 C 15,0 C 13,3 C 69 % 0 lf 1023,5 hPa 0,0 l/m 0 min 0 min 0 W/m 16,7 km/h (3 Bft) 100,00 %
28.09.2016 07:00 15,3 C 15,0 C 13,3 C 69 % 0 lf 1023,6 hPa 0,0 l/m 0 min 0 min 0 W/m 14,6 km/h (3 Bft) 95,74 %
28.09.2016 07:02 15,3 C 15,6 C 13,3 C 69 % 0 lf 1023,6 hPa 0,0 l/m 0 min 0 min 0 W/m 20,9 km/h (4 Bft) 97,87 %
28.09.2016 07:04 15,3 C 15,6 C 13,3 C 69 % 0 lf 1023,6 hPa 0,0 l/m 0 min 0 min 0 W/m 16,7 km/h (3 Bft) 95,74 %
28.09.2016 07:06 15,3 C 15,6 C 13,3 C 69 % 0 lf 1023,5 hPa 0,0 l/m 0 min 0 min 0 W/m 12,6 km/h (3 Bft) 100,00 %
28.09.2016 07:08 15,3 C 15,6 C 13,9 C 69 % 0 lf 1023,4 hPa 0,0 l/m 0 min 0 min 0 W/m 14,6 km/h (3 Bft) 97,83 %
28.09.2016 07:10 15,3 C 15,6 C 13,3 C 70 % 0 lf 1023,5 hPa 0,0 l/m 0 min 0 min 0 W/m 14,6 km/h (3 Bft) 95,74 %
28.09.2016 07:12 15,3 C 15,6 C 13,9 C 70 % 0 lf 1023,5 hPa 0,0 l/m 0 min 0 min 0 W/m 14,6 km/h (3 Bft) 95,74 %
28.09.2016 07:14 15,3 C 15,6 C 13,3 C 70 % 0 lf 1023,4 hPa 0,0 l/m 0 min 0 min 0 W/m 18,8 km/h (3 Bft) 97,87 %
28.09.2016 07:16 15,3 C 15,0 C 13,3 C 70 % 0 lf 1023,4 hPa 0,0 l/m 0 min 0 min 0 W/m 18,8 km/h (3 Bft) 97,87 %
28.09.2016 07:18 15,3 C 15,0 C 13,3 C 70 % 0 lf 1023,4 hPa 0,0 l/m 0 min 0 min 7 W/m 16,7 km/h (3 Bft) 100,00 %
28.09.2016 07:20 15,3 C 15,0 C 13,3 C 70 % 0 lf 1023,5 hPa 0,0 l/m 0 min 0 min 7 W/m 14,6 km/h (3 Bft) 100,00 %
28.09.2016 07:22 15,3 C 15,0 C 13,3 C 70 % 0 lf 1023,5 hPa 0,0 l/m 0 min 0 min 7 W/m 12,6 km/h (3 Bft) 97,87 %
28.09.2016 07:24 15,3 C 15,0 C 12,8 C 70 % 0 lf 1023,6 hPa 0,0 l/m 0 min 0 min 8 W/m 14,6 km/h (3 Bft) 95,74 %
28.09.2016 07:26 15,3 C 15,0 C 12,8 C 70 % 0 lf 1023,7 hPa 0,0 l/m 0 min 0 min 9 W/m 12,6 km/h (3 Bft) 93,62 %
28.09.2016 07:28 15,3 C 15,0 C 12,8 C 70 % 0 lf 1023,7 hPa 0,0 l/m 0 min 0 min 9 W/m 14,6 km/h (3 Bft) 95,74 %
28.09.2016 07:30 15,2 C 15,0 C 12,8 C 70 % 0 lf 1023,7 hPa 0,0 l/m 0 min 0 min 10 W/m 10,5 km/h (2 Bft) 100,00 %
28.09.2016 07:32 15,2 C 15,0 C 12,8 C 70 % 0 lf 1023,7 hPa 0,0 l/m 0 min 0 min 11 W/m 12,6 km/h (3 Bft) 95,83 %
28.09.2016 07:34 15,2 C 15,0 C 12,8 C 71 % 0 lf 1023,8 hPa 0,0 l/m 0 min 0 min 11 W/m 10,5 km/h (2 Bft) 95,74 %
28.09.2016 07:36 15,2 C 15,0 C 12,8 C 71 % 0 lf 1023,6 hPa 0,0 l/m 0 min 0 min 12 W/m 12,6 km/h (3 Bft) 97,87 %
28.09.2016 07:38 15,2 C 15,0 C 13,3 C 71 % 0 lf 1023,6 hPa 0,0 l/m 0 min 0 min 12 W/m 8,4 km/h (2 Bft) 97,87 %
28.09.2016 07:40 15,2 C 15,0 C 13,3 C 71 % 0 lf 1023,8 hPa 0,0 l/m 0 min 0 min 12 W/m 8,4 km/h (2 Bft) 95,74 %
28.09.2016 07:42 15,2 C 15,0 C 13,3 C 71 % 0 lf 1023,8 hPa 0,0 l/m 0 min 0 min 12 W/m 16,7 km/h (3 Bft) 97,83 %
28.09.2016 07:44 15,1 C 15,0 C 13,3 C 71 % 0 lf 1023,9 hPa 0,0 l/m 0 min 0 min 13 W/m 16,7 km/h (3 Bft) 95,74 %
28.09.2016 07:46 15,1 C 15,0 C 13,3 C 71 % 0 lf 1023,9 hPa 0,0 l/m 0 min 0 min 14 W/m 14,6 km/h (3 Bft) 97,87 %
28.09.2016 07:48 15,1 C 15,6 C 13,3 C 72 % 0 lf 1023,9 hPa 0,0 l/m 0 min 0 min 15 W/m 12,6 km/h (3 Bft) 97,87 %
28.09.2016 07:50 15,1 C 15,6 C 13,3 C 72 % 0 lf 1023,8 hPa 0,0 l/m 0 min 0 min 16 W/m 14,6 km/h (3 Bft) 95,74 %
28.09.2016 07:52 15,1 C 15,6 C 13,3 C 72 % 0 lf 1023,8 hPa 0,0 l/m 0 min 0 min 17 W/m 12,6 km/h (3 Bft) 95,74 %
28.09.2016 07:54 15,1 C 15,6 C 13,3 C 72 % 0 lf 1023,8 hPa 0,0 l/m 0 min 0 min 18 W/m 12,6 km/h (3 Bft) 100,00 %
28.09.2016 07:56 15,1 C 15,6 C 13,3 C 72 % 0 lf 1023,8 hPa 0,0 l/m 0 min 0 min 19 W/m 25,1 km/h (4 Bft) 100,00 %
28.09.2016 07:58 15,1 C 15,6 C 13,3 C 72 % 0 lf 1023,8 hPa 0,0 l/m 0 min 0 min 20 W/m 16,7 km/h (3 Bft) 100,00 %
28.09.2016 08:00 15,1 C 15,0 C 13,3 C 72 % 0 lf 1023,8 hPa 0,0 l/m 0 min 0 min 22 W/m 16,7 km/h (3 Bft) 97,87 %
28.09.2016 08:02 15,1 C 15,0 C 13,3 C 72 % 0 lf 1023,8 hPa 0,0 l/m 0 min 0 min 23 W/m 12,6 km/h (3 Bft) 97,92 %
28.09.2016 08:04 15,2 C 15,0 C 13,3 C 72 % 0 lf 1023,9 hPa 0,0 l/m 0 min 0 min 24 W/m 14,6 km/h (3 Bft) 95,74 %
28.09.2016 08:06 15,2 C 15,0 C 13,3 C 72 % 0 lf 1024,0 hPa 0,0 l/m 0 min 0 min 25 W/m 14,6 km/h (3 Bft) 97,37 %
28.09.2016 08:08 15,1 C 15,0 C 13,3 C 72 % 0 lf 1023,9 hPa 0,0 l/m 0 min 0 min 27 W/m 14,6 km/h (3 Bft) 91,30 %
28.09.2016 08:10 15,1 C 15,0 C 13,3 C 73 % 0 lf 1024,0 hPa 0,0 l/m 0 min 0 min 32 W/m 12,6 km/h (3 Bft) 100,00 %
28.09.2016 08:12 15,1 C 15,0 C 13,3 C 73 % 0 lf 1024,1 hPa 0,0 l/m 0 min 0 min 43 W/m 12,6 km/h (3 Bft) 93,62 %
28.09.2016 08:14 15,1 C 15,6 C 13,3 C 73 % 0 lf 1024,1 hPa 0,0 l/m 2 min 0 min 52 W/m 14,6 km/h (3 Bft) 100,00 %
28.09.2016 08:16 15,1 C 15,6 C 13,3 C 73 % 0 lf 1024,1 hPa 0,0 l/m 0 min 0 min 40 W/m 10,5 km/h (2 Bft) 100,00 %
28.09.2016 08:18 15,1 C 15,6 C 13,9 C 73 % 0 lf 1024,2 hPa 0,0 l/m 0 min 0 min 34 W/m 10,5 km/h (2 Bft) 100,00 %
28.09.2016 08:20 15,1 C 15,6 C 13,9 C 73 % 0 lf 1024,3 hPa 0,0 l/m 0 min 0 min 31 W/m 8,4 km/h (2 Bft) 100,00 %
28.09.2016 08:22 15,1 C 15,6 C 13,9 C 74 % 0 lf 1024,3 hPa 0,0 l/m 0 min 0 min 32 W/m 8,4 km/h (2 Bft) 97,87 %
28.09.2016 08:24 15,1 C 15,6 C 13,9 C 73 % 0 lf 1024,3 hPa 0,0 l/m 0 min 0 min 33 W/m 14,6 km/h (3 Bft) 97,87 %
28.09.2016 08:26 15,2 C 15,6 C 13,9 C 74 % 0 lf 1024,4 hPa 0,0 l/m 0 min 0 min 28 W/m 14,6 km/h (3 Bft) 93,62 %
28.09.2016 08:28 15,2 C 15,6 C 13,9 C 74 % 0 lf 1024,3 hPa 0,0 l/m 0 min 0 min 26 W/m 14,6 km/h (3 Bft) 93,62 %
28.09.2016 08:30 15,2 C 15,6 C 13,9 C 74 % 0 lf 1024,3 hPa 0,0 l/m 0 min 0 min 27 W/m 16,7 km/h (3 Bft) 97,87 %
28.09.2016 08:32 15,2 C 15,6 C 13,9 C 74 % 0 lf 1024,4 hPa 0,0 l/m 0 min 0 min 26 W/m 10,5 km/h (2 Bft) 97,83 %
28.09.2016 08:34 15,2 C 15,6 C 13,9 C 74 % 0 lf 1024,4 hPa 0,0 l/m 0 min 0 min 27 W/m 8,4 km/h (2 Bft) 100,00 %
28.09.2016 08:36 15,2 C 15,6 C 13,9 C 74 % 0 lf 1024,4 hPa 0,0 l/m 0 min 0 min 31 W/m 12,6 km/h (3 Bft) 97,87 %
28.09.2016 08:38 15,2 C 15,6 C 13,9 C 75 % 0 lf 1024,3 hPa 0,0 l/m 0 min 0 min 29 W/m 14,6 km/h (3 Bft) 100,00 %
28.09.2016 08:40 15,3 C 15,6 C 14,4 C 75 % 0 lf 1024,2 hPa 0,0 l/m 0 min 0 min 32 W/m 14,6 km/h (3 Bft) 95,74 %
28.09.2016 08:42 15,3 C 15,6 C 14,4 C 75 % 0 lf 1024,2 hPa 0,0 l/m 0 min 0 min 35 W/m 16,7 km/h (3 Bft) 97,83 %
28.09.2016 08:44 15,3 C 15,6 C 14,4 C 75 % 0 lf 1024,2 hPa 0,0 l/m 0 min 0 min 39 W/m 10,5 km/h (2 Bft) 100,00 %
28.09.2016 08:46 15,3 C 15,6 C 14,4 C 75 % 0 lf 1024,2 hPa 0,0 l/m 0 min 0 min 36 W/m 16,7 km/h (3 Bft) 94,34 %
28.09.2016 08:48 15,3 C 15,6 C 14,4 C 75 % 0 lf 1024,2 hPa 0,0 l/m 0 min 0 min 38 W/m 14,6 km/h (3 Bft) 100,00 %
28.09.2016 08:50 15,4 C 16,1 C 14,4 C 76 % 0 lf 1024,3 hPa 0,0 l/m 0 min 0 min 40 W/m 14,6 km/h (3 Bft) 93,62 %
28.09.2016 08:52 15,4 C 16,1 C 14,4 C 76 % 0 lf 1024,3 hPa 0,0 l/m 0 min 0 min 44 W/m 12,6 km/h (3 Bft) 97,83 %
28.09.2016 08:54 15,4 C 16,1 C 14,4 C 76 % 0 lf 1024,3 hPa 0,0 l/m 0 min 0 min 43 W/m 12,6 km/h (3 Bft) 95,74 %
28.09.2016 08:56 15,4 C 16,1 C 14,4 C 76 % 0 lf 1024,3 hPa 0,0 l/m 0 min 0 min 47 W/m 12,6 km/h (3 Bft) 95,74 %
28.09.2016 08:58 15,4 C 16,1 C 15,0 C 76 % 0 lf 1024,3 hPa 0,0 l/m 0 min 0 min 56 W/m 16,7 km/h (3 Bft) 91,49 %
28.09.2016 09:00 15,5 C 16,1 C 15,0 C 76 % 0 lf 1024,2 hPa 0,0 l/m 0 min 0 min 62 W/m 16,7 km/h (3 Bft) 90,24 %
28.09.2016 09:02 15,5 C 16,1 C 15,0 C 76 % 0 lf 1024,3 hPa 0,0 l/m 0 min 0 min 69 W/m 14,6 km/h (3 Bft) 94,44 %
28.09.2016 09:04 15,6 C 16,1 C 15,0 C 77 % 0 lf 1024,2 hPa 0,0 l/m 0 min 0 min 71 W/m 16,7 km/h (3 Bft) 91,30 %
28.09.2016 09:06 15,6 C 16,1 C 15,0 C 77 % 0 lf 1024,2 hPa 0,0 l/m 0 min 0 min 74 W/m 18,8 km/h (3 Bft) 94,74 %
28.09.2016 09:08 15,6 C 16,1 C 15,0 C 77 % 0 lf 1024,2 hPa 0,0 l/m 0 min 0 min 80 W/m 16,7 km/h (3 Bft) 97,87 %
28.09.2016 09:10 15,7 C 16,7 C 15,0 C 77 % 0 lf 1024,2 hPa 0,0 l/m 0 min 0 min 88 W/m 20,9 km/h (4 Bft) 93,62 %
28.09.2016 09:12 15,7 C 16,7 C 15,0 C 77 % 0 lf 1024,2 hPa 0,0 l/m 0 min 0 min 82 W/m 12,6 km/h (3 Bft) 95,74 %
28.09.2016 09:14 15,7 C 16,7 C 15,6 C 77 % 0 lf 1024,3 hPa 0,0 l/m 0 min 0 min 107 W/m 14,6 km/h (3 Bft) 93,62 %
28.09.2016 09:16 15,8 C 16,7 C 15,6 C 78 % 0 lf 1024,4 hPa 0,0 l/m 0 min 0 min 110 W/m 14,6 km/h (3 Bft) 89,36 %
28.09.2016 09:18 15,8 C 16,7 C 15,6 C 78 % 0 lf 1024,4 hPa 0,0 l/m 0 min 0 min 89 W/m 14,6 km/h (3 Bft) 95,65 %
28.09.2016 09:20 15,8 C 16,7 C 15,6 C 78 % 0 lf 1024,6 hPa 0,0 l/m 0 min 0 min 85 W/m 14,6 km/h (3 Bft) 93,62 %
28.09.2016 09:22 15,9 C 16,7 C 15,6 C 78 % 0 lf 1024,7 hPa 0,0 l/m 0 min 0 min 87 W/m 12,6 km/h (3 Bft) 91,49 %
28.09.2016 09:24 15,9 C 16,7 C 15,6 C 79 % 0 lf 1024,7 hPa 0,0 l/m 0 min 0 min 98 W/m 16,7 km/h (3 Bft) 93,62 %
28.09.2016 09:26 16,0 C 16,7 C 15,6 C 79 % 0 lf 1024,7 hPa 0,0 l/m 0 min 0 min 100 W/m 18,8 km/h (3 Bft) 91,49 %
28.09.2016 09:28 16,1 C 16,7 C 15,6 C 79 % 0 lf 1024,7 hPa 0,0 l/m 0 min 0 min 99 W/m 20,9 km/h (4 Bft) 89,36 %
28.09.2016 09:30 16,1 C 16,7 C 16,1 C 79 % 0 lf 1024,6 hPa 0,0 l/m 0 min 0 min 115 W/m 23,0 km/h (4 Bft) 93,48 %
28.09.2016 09:32 16,2 C 16,7 C 16,1 C 80 % 0 lf 1024,5 hPa 0,0 l/m 0 min 0 min 97 W/m 16,7 km/h (3 Bft) 89,58 %
28.09.2016 09:34 16,2 C 16,7 C 15,6 C 80 % 0 lf 1024,6 hPa 0,0 l/m 0 min 0 min 81 W/m 16,7 km/h (3 Bft) 89,36 %
28.09.2016 09:36 16,2 C 16,7 C 15,6 C 80 % 0 lf 1024,6 hPa 0,0 l/m 0 min 0 min 76 W/m 20,9 km/h (4 Bft) 87,27 %
28.09.2016 09:38 16,2 C 16,7 C 15,6 C 81 % 0 lf 1024,6 hPa 0,0 l/m 0 min 0 min 88 W/m 27,2 km/h (4 Bft) 91,49 %
28.09.2016 09:40 16,3 C 16,7 C 15,6 C 81 % 0 lf 1024,6 hPa 0,0 l/m 0 min 0 min 91 W/m 20,9 km/h (4 Bft) 93,48 %
28.09.2016 09:42 16,3 C 16,7 C 15,6 C 81 % 0 lf 1024,5 hPa 0,0 l/m 0 min 0 min 94 W/m 16,7 km/h (3 Bft) 93,62 %
28.09.2016 09:44 16,3 C 16,7 C 16,1 C 82 % 0 lf 1024,5 hPa 0,0 l/m 0 min 0 min 106 W/m 29,3 km/h (5 Bft) 95,74 %
28.09.2016 09:46 16,3 C 16,7 C 16,1 C 82 % 0 lf 1024,5 hPa 0,0 l/m 0 min 0 min 101 W/m 18,8 km/h (3 Bft) 89,36 %
28.09.2016 09:48 16,3 C 17,2 C 16,1 C 82 % 0 lf 1024,5 hPa 0,0 l/m 0 min 0 min 100 W/m 18,8 km/h (3 Bft) 95,74 %
28.09.2016 09:50 16,4 C 16,7 C 16,1 C 82 % 0 lf 1024,5 hPa 0,0 l/m 0 min 0 min 99 W/m 23,0 km/h (4 Bft) 95,74 %
28.09.2016 09:52 16,4 C 17,2 C 16,1 C 82 % 0 lf 1024,7 hPa 0,0 l/m 0 min 0 min 96 W/m 18,8 km/h (3 Bft) 95,65 %
28.09.2016 09:54 16,4 C 16,7 C 16,1 C 82 % 0 lf 1024,6 hPa 0,0 l/m 0 min 0 min 92 W/m 23,0 km/h (4 Bft) 95,74 %
28.09.2016 09:56 16,4 C 16,7 C 16,1 C 82 % 0 lf 1024,7 hPa 0,0 l/m 0 min 0 min 99 W/m 18,8 km/h (3 Bft) 95,74 %
28.09.2016 09:58 16,4 C 17,2 C 16,1 C 82 % 0 lf 1024,7 hPa 0,0 l/m 0 min 0 min 108 W/m 23,0 km/h (4 Bft) 93,62 %
28.09.2016 10:00 16,5 C 17,2 C 16,1 C 82 % 0 lf 1024,7 hPa 0,0 l/m 0 min 0 min 120 W/m 20,9 km/h (4 Bft) 97,87 %
28.09.2016 10:02 16,5 C 17,2 C 16,1 C 83 % 0 lf 1024,6 hPa 0,0 l/m 0 min 0 min 122 W/m 16,7 km/h (3 Bft) 94,74 %
28.09.2016 10:04 16,5 C 17,2 C 16,1 C 83 % 0 lf 1024,7 hPa 0,0 l/m 0 min 0 min 126 W/m 16,7 km/h (3 Bft) 97,87 %
28.09.2016 10:06 16,6 C 17,2 C 16,1 C 83 % 0 lf 1024,7 hPa 0,0 l/m 0 min 0 min 130 W/m 23,0 km/h (4 Bft) 93,75 %
28.09.2016 10:08 16,6 C 17,8 C 16,7 C 83 % 0 lf 1024,7 hPa 0,0 l/m 0 min 0 min 163 W/m 25,1 km/h (4 Bft) 97,87 %
28.09.2016 10:10 16,6 C 17,8 C 16,7 C 83 % 0 lf 1024,6 hPa 0,0 l/m 0 min 0 min 159 W/m 25,1 km/h (4 Bft) 95,74 %
28.09.2016 10:12 16,6 C 17,8 C 16,7 C 83 % 0 lf 1024,6 hPa 0,0 l/m 0 min 0 min 161 W/m 25,1 km/h (4 Bft) 95,74 %
28.09.2016 10:14 16,7 C 17,8 C 16,7 C 83 % 0 lf 1024,6 hPa 0,0 l/m 0 min 0 min 179 W/m 18,8 km/h (3 Bft) 95,74 %
28.09.2016 10:16 16,7 C 18,3 C 17,2 C 83 % 0 lf 1024,5 hPa 0,0 l/m 0 min 0 min 173 W/m 14,6 km/h (3 Bft) 95,65 %
28.09.2016 10:18 16,7 C 18,3 C 17,2 C 83 % 0 lf 1024,5 hPa 0,0 l/m 0 min 0 min 166 W/m 16,7 km/h (3 Bft) 97,87 %
28.09.2016 10:20 16,8 C 18,3 C 17,2 C 83 % 0 lf 1024,5 hPa 0,0 l/m 0 min 0 min 155 W/m 14,6 km/h (3 Bft) 93,62 %
28.09.2016 10:22 16,8 C 18,3 C 17,2 C 83 % 0 lf 1024,4 hPa 0,0 l/m 0 min 0 min 146 W/m 25,1 km/h (4 Bft) 97,87 %
28.09.2016 10:24 16,8 C 18,3 C 17,2 C 84 % 0 lf 1024,4 hPa 0,0 l/m 0 min 0 min 161 W/m 16,7 km/h (3 Bft) 97,87 %
28.09.2016 10:26 16,9 C 18,3 C 17,2 C 83 % 0 lf 1024,4 hPa 0,0 l/m 0 min 0 min 159 W/m 18,8 km/h (3 Bft) 95,74 %
28.09.2016 10:28 16,9 C 18,3 C 17,2 C 83 % 0 lf 1024,5 hPa 0,0 l/m 0 min 0 min 159 W/m 18,8 km/h (3 Bft) 93,48 %
28.09.2016 10:30 16,9 C 18,3 C 17,2 C 83 % 0 lf 1024,6 hPa 0,0 l/m 0 min 0 min 192 W/m 18,8 km/h (3 Bft) 97,87 %
28.09.2016 10:32 17,0 C 18,3 C 17,8 C 84 % 0 lf 1024,6 hPa 0,0 l/m 0 min 0 min 196 W/m 29,3 km/h (5 Bft) 97,87 %
28.09.2016 10:34 17,1 C 18,3 C 17,8 C 84 % 0 lf 1024,7 hPa 0,0 l/m 0 min 0 min 162 W/m 25,1 km/h (4 Bft) 97,87 %
28.09.2016 10:36 17,1 C 18,3 C 17,2 C 83 % 0 lf 1024,7 hPa 0,0 l/m 0 min 0 min 129 W/m 18,8 km/h (3 Bft) 100,00 %
28.09.2016 10:38 17,1 C 18,3 C 17,2 C 83 % 0 lf 1024,7 hPa 0,0 l/m 0 min 0 min 127 W/m 27,2 km/h (4 Bft) 95,74 %
28.09.2016 10:40 17,1 C 18,3 C 17,2 C 83 % 0 lf 1024,8 hPa 0,0 l/m 0 min 0 min 136 W/m 20,9 km/h (4 Bft) 100,00 %
28.09.2016 10:42 17,2 C 18,3 C 17,2 C 83 % 0 lf 1024,8 hPa 0,0 l/m 0 min 0 min 151 W/m 25,1 km/h (4 Bft) 100,00 %
28.09.2016 10:44 17,2 C 18,3 C 17,8 C 83 % 0 lf 1024,8 hPa 0,0 l/m 0 min 0 min 170 W/m 25,1 km/h (4 Bft) 100,00 %
28.09.2016 10:46 17,2 C 18,3 C 17,8 C 84 % 0 lf 1024,8 hPa 0,0 l/m 0 min 0 min 181 W/m 20,9 km/h (4 Bft) 100,00 %
28.09.2016 10:48 17,3 C 18,9 C 17,8 C 84 % 0 lf 1024,8 hPa 0,0 l/m 0 min 0 min 176 W/m 20,9 km/h (4 Bft) 100,00 %
28.09.2016 10:50 17,3 C 18,9 C 17,8 C 84 % 0 lf 1024,8 hPa 0,0 l/m 0 min 0 min 198 W/m 14,6 km/h (3 Bft) 100,00 %
28.09.2016 10:52 17,3 C 19,4 C 18,3 C 84 % 0 lf 1024,7 hPa 0,0 l/m 2 min 0 min 245 W/m 29,3 km/h (5 Bft) 100,00 %
28.09.2016 10:54 17,4 C 19,4 C 18,3 C 84 % 0 lf 1024,7 hPa 0,0 l/m 2 min 0 min 252 W/m 25,1 km/h (4 Bft) 100,00 %
28.09.2016 10:56 17,4 C 19,4 C 18,3 C 84 % 0 lf 1024,7 hPa 0,0 l/m 2 min 0 min 283 W/m 20,9 km/h (4 Bft) 97,87 %
28.09.2016 10:58 17,5 C 19,4 C 18,9 C 84 % 0 lf 1024,7 hPa 0,0 l/m 2 min 0 min 269 W/m 16,7 km/h (3 Bft) 97,87 %
28.09.2016 11:00 17,6 C 20,0 C 18,9 C 84 % 0 lf 1024,7 hPa 0,0 l/m 2 min 0 min 284 W/m 16,7 km/h (3 Bft) 95,74 %
28.09.2016 11:02 17,6 C 20,6 C 18,9 C 84 % 0 lf 1024,7 hPa 0,0 l/m 2 min 0 min 297 W/m 20,9 km/h (4 Bft) 100,00 %
28.09.2016 11:04 17,7 C 20,0 C 18,9 C 84 % 0 lf 1024,7 hPa 0,0 l/m 2 min 0 min 284 W/m 18,8 km/h (3 Bft) 100,00 %
28.09.2016 11:06 17,8 C 19,4 C 18,9 C 84 % 0 lf 1024,7 hPa 0,0 l/m 2 min 0 min 266 W/m 23,0 km/h (4 Bft) 96,00 %
28.09.2016 11:08 17,8 C 20,6 C 19,4 C 84 % 0 lf 1024,7 hPa 0,0 l/m 2 min 0 min 345 W/m 25,1 km/h (4 Bft) 95,74 %
28.09.2016 11:10 17,8 C 20,0 C 19,4 C 84 % 0 lf 1024,7 hPa 0,0 l/m 2 min 0 min 375 W/m 25,1 km/h (4 Bft) 97,87 %
28.09.2016 11:12 17,9 C 20,6 C 18,9 C 84 % 0 lf 1024,8 hPa 0,0 l/m 2 min 0 min 262 W/m 25,1 km/h (4 Bft) 100,00 %
28.09.2016 11:14 17,9 C 19,4 C 18,9 C 84 % 0 lf 1024,8 hPa 0,0 l/m 0 min 0 min 213 W/m 16,7 km/h (3 Bft) 100,00 %
28.09.2016 11:16 17,9 C 18,9 C 18,3 C 83 % 0 lf 1024,7 hPa 0,0 l/m 0 min 0 min 206 W/m 16,7 km/h (3 Bft) 95,74 %
28.09.2016 11:18 17,9 C 18,9 C 18,3 C 83 % 0 lf 1024,8 hPa 0,0 l/m 0 min 0 min 217 W/m 18,8 km/h (3 Bft) 95,74 %
28.09.2016 11:20 17,9 C 18,9 C 18,3 C 83 % 0 lf 1024,7 hPa 0,0 l/m 2 min 0 min 278 W/m 14,6 km/h (3 Bft) 100,00 %
28.09.2016 11:22 17,9 C 18,9 C 18,3 C 83 % 0 lf 1024,7 hPa 0,0 l/m 2 min 0 min 253 W/m 20,9 km/h (4 Bft) 93,62 %
28.09.2016 11:24 17,9 C 18,9 C 18,3 C 83 % 0 lf 1024,7 hPa 0,0 l/m 0 min 0 min 240 W/m 23,0 km/h (4 Bft) 93,48 %
28.09.2016 11:26 17,9 C 18,9 C 18,3 C 83 % 0 lf 1024,6 hPa 0,0 l/m 2 min 0 min 290 W/m 25,1 km/h (4 Bft) 95,74 %
28.09.2016 11:28 17,9 C 18,9 C 18,3 C 83 % 0 lf 1024,5 hPa 0,0 l/m 2 min 0 min 311 W/m 27,2 km/h (4 Bft) 95,74 %
28.09.2016 11:30 18,0 C 20,0 C 18,9 C 83 % 0 lf 1024,5 hPa 0,0 l/m 2 min 0 min 353 W/m 18,8 km/h (3 Bft) 97,87 %
28.09.2016 11:32 18,0 C 21,1 C 19,4 C 83 % 0 lf 1024,4 hPa 0,0 l/m 2 min 0 min 429 W/m 25,1 km/h (4 Bft) 97,22 %
28.09.2016 11:34 18,1 C 21,1 C 20,0 C 83 % 0 lf 1024,4 hPa 0,0 l/m 2 min 0 min 448 W/m 27,2 km/h (4 Bft) 95,74 %
28.09.2016 11:36 18,1 C 21,7 C 20,0 C 83 % 0 lf 1024,3 hPa 0,0 l/m 2 min 0 min 403 W/m 25,1 km/h (4 Bft) 97,96 %
28.09.2016 11:38 18,2 C 22,2 C 20,0 C 83 % 0 lf 1024,3 hPa 0,0 l/m 2 min 0 min 419 W/m 16,7 km/h (3 Bft) 95,65 %
28.09.2016 11:40 18,3 C 23,3 C 21,1 C 83 % 0 lf 1024,3 hPa 0,0 l/m 2 min 0 min 439 W/m 27,2 km/h (4 Bft) 93,62 %
28.09.2016 11:42 18,3 C 22,2 C 20,6 C 82 % 0 lf 1024,3 hPa 0,0 l/m 2 min 0 min 407 W/m 20,9 km/h (4 Bft) 91,49 %
28.09.2016 11:44 18,4 C 23,3 C 20,6 C 82 % 0 lf 1024,4 hPa 0,0 l/m 2 min 0 min 430 W/m 25,1 km/h (4 Bft) 93,62 %
28.09.2016 11:46 18,5 C 22,8 C 20,6 C 82 % 0 lf 1024,4 hPa 0,0 l/m 2 min 0 min 406 W/m 23,0 km/h (4 Bft) 91,49 %
28.09.2016 11:48 18,6 C 22,2 C 20,6 C 81 % 0 lf 1024,3 hPa 0,0 l/m 2 min 0 min 371 W/m 27,2 km/h (4 Bft) 95,74 %
28.09.2016 11:50 18,7 C 22,2 C 20,6 C 81 % 0 lf 1024,4 hPa 0,0 l/m 2 min 0 min 361 W/m 16,7 km/h (3 Bft) 93,48 %
28.09.2016 11:52 18,8 C 21,7 C 20,6 C 81 % 0 lf 1024,4 hPa 0,0 l/m 2 min 0 min 370 W/m 16,7 km/h (3 Bft) 93,62 %
28.09.2016 11:54 18,8 C 21,7 C 20,6 C 80 % 0 lf 1024,3 hPa 0,0 l/m 2 min 0 min 345 W/m 29,3 km/h (5 Bft) 93,62 %
28.09.2016 11:56 18,9 C 21,7 C 20,6 C 80 % 0 lf 1024,4 hPa 0,0 l/m 2 min 0 min 299 W/m 25,1 km/h (4 Bft) 91,49 %
28.09.2016 11:58 18,9 C 21,1 C 20,0 C 80 % 0 lf 1024,4 hPa 0,0 l/m 0 min 0 min 268 W/m 35,6 km/h (5 Bft) 95,74 %
28.09.2016 12:00 18,9 C 20,6 C 20,0 C 79 % 0 lf 1024,3 hPa 0,0 l/m 0 min 0 min 264 W/m 31,4 km/h (5 Bft) 95,74 %
28.09.2016 12:02 18,9 C 20,0 C 19,4 C 79 % 0 lf 1024,2 hPa 0,0 l/m 0 min 0 min 235 W/m 25,1 km/h (4 Bft) 95,65 %
28.09.2016 12:06 19,0 C 22,8 C 20,0 C 79 % 0 lf 1024,3 hPa 0,0 l/m 2 min 0 min 403 W/m 27,2 km/h (4 Bft) 94,68 %
28.09.2016 12:08 19,0 C 23,9 C 20,0 C 79 % 0 lf 1024,2 hPa 0,0 l/m 2 min 0 min 468 W/m 27,2 km/h (4 Bft) 93,62 %
28.09.2016 12:10 19,1 C 23,9 C 20,0 C 79 % 0 lf 1024,2 hPa 0,0 l/m 2 min 0 min 466 W/m 27,2 km/h (4 Bft) 95,74 %
28.09.2016 12:12 19,1 C 24,4 C 20,0 C 79 % 0 lf 1024,2 hPa 0,0 l/m 2 min 0 min 610 W/m 29,3 km/h (5 Bft) 93,62 %
28.09.2016 12:14 19,2 C 25,0 C 20,6 C 79 % 0 lf 1024,2 hPa 0,0 l/m 2 min 0 min 590 W/m 27,2 km/h (4 Bft) 93,48 %
28.09.2016 12:16 19,3 C 26,1 C 20,6 C 79 % 0 lf 1024,1 hPa 0,0 l/m 2 min 0 min 600 W/m 29,3 km/h (5 Bft) 95,74 %
28.09.2016 12:18 19,4 C 26,1 C 21,1 C 79 % 0 lf 1024,1 hPa 0,0 l/m 2 min 0 min 659 W/m 20,9 km/h (4 Bft) 95,74 %
28.09.2016 12:20 19,4 C 24,4 C 21,1 C 79 % 0 lf 1024,0 hPa 0,0 l/m 2 min 0 min 658 W/m 20,9 km/h (4 Bft) 95,74 %
28.09.2016 12:22 19,5 C 24,4 C 20,6 C 78 % 0 lf 1024,0 hPa 0,0 l/m 2 min 0 min 380 W/m 27,2 km/h (4 Bft) 91,49 %
28.09.2016 12:24 19,6 C 25,0 C 20,6 C 78 % 0 lf 1024,1 hPa 0,0 l/m 2 min 0 min 464 W/m 23,0 km/h (4 Bft) 97,87 %
28.09.2016 12:26 19,6 C 25,0 C 20,6 C 78 % 0 lf 1024,1 hPa 0,0 l/m 2 min 0 min 615 W/m 25,1 km/h (4 Bft) 97,83 %
28.09.2016 12:28 19,7 C 25,0 C 21,1 C 78 % 0 lf 1024,1 hPa 0,0 l/m 2 min 0 min 511 W/m 39,7 km/h (6 Bft) 93,62 %
28.09.2016 12:30 19,7 C 25,0 C 21,1 C 77 % 0 lf 1024,1 hPa 0,0 l/m 2 min 0 min 745 W/m 33,5 km/h (5 Bft) 95,74 %
28.09.2016 12:32 19,7 C 25,6 C 21,7 C 77 % 0 lf 1024,0 hPa 0,0 l/m 2 min 0 min 586 W/m 25,1 km/h (4 Bft) 97,87 %
28.09.2016 12:34 19,7 C 23,9 C 21,1 C 77 % 0 lf 1024,1 hPa 0,0 l/m 2 min 0 min 462 W/m 31,4 km/h (5 Bft) 97,87 %
28.09.2016 12:36 19,7 C 23,3 C 20,6 C 76 % 0 lf 1024,1 hPa 0,0 l/m 2 min 0 min 462 W/m 39,7 km/h (6 Bft) 96,23 %
28.09.2016 12:38 19,7 C 24,4 C 20,6 C 76 % 0 lf 1024,1 hPa 0,0 l/m 2 min 0 min 462 W/m 37,7 km/h (5 Bft) 95,74 %
28.09.2016 12:40 19,7 C 25,0 C 20,6 C 76 % 0 lf 1024,2 hPa 0,0 l/m 2 min 0 min 579 W/m 27,2 km/h (4 Bft) 93,62 %
28.09.2016 12:42 19,8 C 25,6 C 21,1 C 76 % 0 lf 1024,1 hPa 0,0 l/m 2 min 0 min 639 W/m 27,2 km/h (4 Bft) 95,74 %
28.09.2016 12:44 19,9 C 26,7 C 21,1 C 76 % 0 lf 1024,2 hPa 0,0 l/m 2 min 0 min 698 W/m 31,4 km/h (5 Bft) 97,87 %
28.09.2016 12:46 20,0 C 26,7 C 21,1 C 76 % 0 lf 1024,2 hPa 0,0 l/m 2 min 0 min 712 W/m 35,6 km/h (5 Bft) 97,83 %
28.09.2016 12:48 20,1 C 27,2 C 21,1 C 76 % 0 lf 1024,1 hPa 0,0 l/m 2 min 0 min 684 W/m 23,0 km/h (4 Bft) 95,74 %
28.09.2016 12:50 20,2 C 26,1 C 21,1 C 75 % 0 lf 1024,1 hPa 0,0 l/m 2 min 0 min 636 W/m 33,5 km/h (5 Bft) 100,00 %
28.09.2016 12:52 20,2 C 25,0 C 20,6 C 75 % 0 lf 1024,2 hPa 0,0 l/m 2 min 0 min 656 W/m 25,1 km/h (4 Bft) 95,74 %
28.09.2016 12:54 20,3 C 25,0 C 20,6 C 74 % 0 lf 1024,3 hPa 0,0 l/m 0 min 0 min 277 W/m 31,4 km/h (5 Bft) 97,87 %
28.09.2016 12:56 20,3 C 24,4 C 20,6 C 74 % 0 lf 1024,3 hPa 0,0 l/m 2 min 0 min 303 W/m 29,3 km/h (5 Bft) 95,74 %
28.09.2016 12:58 20,3 C 25,0 C 20,6 C 73 % 0 lf 1024,2 hPa 0,0 l/m 2 min 0 min 663 W/m 31,4 km/h (5 Bft) 95,65 %
28.09.2016 13:00 20,3 C 25,6 C 20,6 C 73 % 0 lf 1024,2 hPa 0,0 l/m 2 min 0 min 704 W/m 29,3 km/h (5 Bft) 95,74 %
28.09.2016 13:02 20,4 C 25,6 C 20,6 C 74 % 0 lf 1024,2 hPa 0,0 l/m 2 min 0 min 627 W/m 29,3 km/h (5 Bft) 93,75 %
28.09.2016 13:04 20,4 C 25,6 C 20,6 C 74 % 0 lf 1024,1 hPa 0,0 l/m 2 min 0 min 416 W/m 25,1 km/h (4 Bft) 93,62 %
28.09.2016 13:06 20,5 C 27,2 C 21,1 C 74 % 0 lf 1024,1 hPa 0,0 l/m 2 min 0 min 509 W/m 16,7 km/h (3 Bft) 97,37 %
28.09.2016 13:08 20,6 C 26,7 C 21,1 C 74 % 0 lf 1024,1 hPa 0,0 l/m 2 min 0 min 408 W/m 18,8 km/h (3 Bft) 97,87 %
28.09.2016 13:10 20,7 C 26,1 C 21,1 C 73 % 0 lf 1024,0 hPa 0,0 l/m 0 min 0 min 279 W/m 20,9 km/h (4 Bft) 97,87 %
28.09.2016 13:12 20,7 C 25,6 C 21,1 C 73 % 0 lf 1024,0 hPa 0,0 l/m 2 min 0 min 312 W/m 25,1 km/h (4 Bft) 97,83 %
28.09.2016 13:14 20,7 C 25,0 C 21,1 C 72 % 0 lf 1024,0 hPa 0,0 l/m 2 min 0 min 425 W/m 25,1 km/h (4 Bft) 93,62 %
28.09.2016 13:16 20,8 C 27,2 C 21,7 C 73 % 0 lf 1024,0 hPa 0,0 l/m 2 min 0 min 636 W/m 31,4 km/h (5 Bft) 97,87 %
28.09.2016 13:18 20,9 C 27,8 C 21,7 C 73 % 0 lf 1024,1 hPa 0,0 l/m 2 min 0 min 797 W/m 25,1 km/h (4 Bft) 97,87 %
28.09.2016 13:20 20,9 C 26,7 C 21,7 C 72 % 0 lf 1024,0 hPa 0,0 l/m 2 min 0 min 744 W/m 25,1 km/h (4 Bft) 97,87 %
28.09.2016 13:22 21,0 C 27,8 C 21,7 C 72 % 0 lf 1024,0 hPa 0,0 l/m 2 min 0 min 726 W/m 16,7 km/h (3 Bft) 95,83 %
28.09.2016 13:24 21,1 C 27,2 C 22,2 C 73 % 0 lf 1024,0 hPa 0,0 l/m 2 min 0 min 677 W/m 20,9 km/h (4 Bft) 95,65 %
28.09.2016 13:26 21,2 C 27,8 C 22,2 C 72 % 0 lf 1024,0 hPa 0,0 l/m 2 min 0 min 631 W/m 29,3 km/h (5 Bft) 97,87 %
28.09.2016 13:28 21,3 C 27,8 C 22,2 C 70 % 0 lf 1024,1 hPa 0,0 l/m 2 min 0 min 685 W/m 29,3 km/h (5 Bft) 97,87 %
28.09.2016 13:30 21,3 C 27,2 C 22,2 C 70 % 0 lf 1024,0 hPa 0,0 l/m 2 min 0 min 703 W/m 25,1 km/h (4 Bft) 97,87 %
28.09.2016 13:32 21,4 C 28,3 C 22,8 C 69 % 0 lf 1024,0 hPa 0,0 l/m 2 min 0 min 748 W/m 20,9 km/h (4 Bft) 93,62 %
28.09.2016 13:34 21,6 C 27,8 C 22,8 C 70 % 0 lf 1023,9 hPa 0,0 l/m 2 min 0 min 685 W/m 25,1 km/h (4 Bft) 97,87 %
28.09.2016 13:36 21,6 C 27,2 C 22,2 C 69 % 0 lf 1023,9 hPa 0,0 l/m 2 min 0 min 518 W/m 27,2 km/h (4 Bft) 91,84 %
28.09.2016 13:38 21,7 C 26,1 C 22,2 C 68 % 0 lf 1023,9 hPa 0,0 l/m 2 min 0 min 480 W/m 23,0 km/h (4 Bft) 97,87 %
28.09.2016 13:40 21,7 C 25,0 C 21,7 C 68 % 0 lf 1023,9 hPa 0,0 l/m 2 min 0 min 474 W/m 27,2 km/h (4 Bft) 95,74 %
28.09.2016 13:42 21,7 C 25,6 C 21,7 C 68 % 0 lf 1023,9 hPa 0,0 l/m 2 min 0 min 468 W/m 23,0 km/h (4 Bft) 97,87 %
28.09.2016 13:44 21,7 C 25,6 C 21,7 C 68 % 0 lf 1023,8 hPa 0,0 l/m 2 min 0 min 513 W/m 23,0 km/h (4 Bft) 95,74 %
28.09.2016 13:46 21,7 C 25,6 C 21,7 C 68 % 0 lf 1023,8 hPa 0,0 l/m 2 min 0 min 500 W/m 25,1 km/h (4 Bft) 97,87 %
28.09.2016 13:48 21,7 C 26,1 C 21,7 C 68 % 0 lf 1023,8 hPa 0,0 l/m 2 min 0 min 639 W/m 31,4 km/h (5 Bft) 95,65 %
28.09.2016 13:50 21,7 C 26,1 C 21,7 C 68 % 0 lf 1023,7 hPa 0,0 l/m 2 min 0 min 568 W/m 18,8 km/h (3 Bft) 95,74 %
28.09.2016 13:52 21,7 C 26,7 C 21,7 C 68 % 0 lf 1023,7 hPa 0,0 l/m 2 min 0 min 537 W/m 31,4 km/h (5 Bft) 97,87 %
28.09.2016 13:54 21,7 C 25,6 C 21,7 C 68 % 0 lf 1023,8 hPa 0,0 l/m 2 min 0 min 520 W/m 29,3 km/h (5 Bft) 97,87 %
28.09.2016 13:56 21,7 C 27,2 C 22,2 C 68 % 0 lf 1023,8 hPa 0,0 l/m 2 min 0 min 618 W/m 29,3 km/h (5 Bft) 95,74 %
28.09.2016 13:58 21,7 C 27,2 C 22,2 C 68 % 0 lf 1023,7 hPa 0,0 l/m 2 min 0 min 615 W/m 20,9 km/h (4 Bft) 95,65 %
28.09.2016 14:00 21,8 C 27,2 C 22,2 C 68 % 0 lf 1023,6 hPa 0,0 l/m 2 min 0 min 556 W/m 25,1 km/h (4 Bft) 97,87 %
28.09.2016 14:02 21,8 C 26,7 C 21,7 C 68 % 0 lf 1023,5 hPa 0,0 l/m 2 min 0 min 583 W/m 25,1 km/h (4 Bft) 97,87 %
28.09.2016 14:04 21,8 C 26,1 C 21,7 C 68 % 0 lf 1023,5 hPa 0,0 l/m 2 min 0 min 563 W/m 29,3 km/h (5 Bft) 97,87 %
28.09.2016 14:06 21,9 C 27,2 C 21,7 C 68 % 0 lf 1023,4 hPa 0,0 l/m 2 min 0 min 588 W/m 23,0 km/h (4 Bft) 97,62 %
28.09.2016 14:08 21,9 C 27,8 C 21,7 C 67 % 0 lf 1023,5 hPa 0,0 l/m 2 min 0 min 565 W/m 27,2 km/h (4 Bft) 97,87 %
28.09.2016 14:10 21,9 C 28,3 C 21,7 C 67 % 0 lf 1023,4 hPa 0,0 l/m 2 min 0 min 598 W/m 33,5 km/h (5 Bft) 97,87 %
28.09.2016 14:12 22,0 C 29,4 C 22,2 C 67 % 0 lf 1023,4 hPa 0,0 l/m 2 min 0 min 640 W/m 37,7 km/h (5 Bft) 97,83 %
28.09.2016 14:14 22,1 C 30,0 C 22,2 C 66 % 0 lf 1023,4 hPa 0,0 l/m 2 min 0 min 671 W/m 29,3 km/h (5 Bft) 91,49 %
28.09.2016 14:16 22,2 C 28,9 C 21,7 C 65 % 0 lf 1023,4 hPa 0,0 l/m 2 min 0 min 642 W/m 39,7 km/h (6 Bft) 95,74 %
28.09.2016 14:18 22,2 C 28,9 C 21,7 C 65 % 0 lf 1023,5 hPa 0,0 l/m 2 min 0 min 642 W/m 39,7 km/h (6 Bft) 95,74 %
28.09.2016 14:20 22,2 C 29,4 C 21,7 C 66 % 0 lf 1023,5 hPa 0,0 l/m 2 min 0 min 612 W/m 27,2 km/h (4 Bft) 93,62 %
28.09.2016 14:22 22,3 C 29,4 C 21,7 C 65 % 0 lf 1023,4 hPa 0,0 l/m 2 min 0 min 657 W/m 33,5 km/h (5 Bft) 97,83 %
28.09.2016 14:24 22,4 C 28,9 C 21,7 C 64 % 0 lf 1023,5 hPa 0,0 l/m 2 min 0 min 699 W/m 31,4 km/h (5 Bft) 97,87 %
28.09.2016 14:26 22,4 C 28,9 C 21,7 C 64 % 0 lf 1023,4 hPa 0,0 l/m 2 min 0 min 668 W/m 29,3 km/h (5 Bft) 95,74 %
28.09.2016 14:28 22,5 C 30,6 C 22,2 C 64 % 0 lf 1023,5 hPa 0,0 l/m 2 min 0 min 1229 W/m 16,7 km/h (3 Bft) 97,87 %
28.09.2016 14:30 22,6 C 29,4 C 22,2 C 64 % 0 lf 1023,4 hPa 0,0 l/m 2 min 0 min 1248 W/m 23,0 km/h (4 Bft) 97,87 %
28.09.2016 14:32 22,7 C 30,0 C 22,2 C 64 % 0 lf 1023,4 hPa 0,0 l/m 2 min 0 min 1189 W/m 20,9 km/h (4 Bft) 91,67 %
28.09.2016 14:34 22,7 C 30,0 C 22,2 C 64 % 0 lf 1023,4 hPa 0,0 l/m 2 min 0 min 1167 W/m 27,2 km/h (4 Bft) 97,83 %
28.09.2016 14:36 22,8 C 30,6 C 22,2 C 64 % 0 lf 1023,4 hPa 0,0 l/m 2 min 0 min 1123 W/m 20,9 km/h (4 Bft) 98,04 %
28.09.2016 14:38 22,9 C 30,6 C 22,2 C 64 % 0 lf 1023,4 hPa 0,0 l/m 2 min 0 min 1169 W/m 27,2 km/h (4 Bft) 93,62 %
28.09.2016 14:40 23,0 C 30,6 C 22,2 C 64 % 0 lf 1023,5 hPa 0,0 l/m 2 min 0 min 1224 W/m 27,2 km/h (4 Bft) 93,62 %
28.09.2016 14:42 23,0 C 29,4 C 22,2 C 64 % 0 lf 1023,4 hPa 0,0 l/m 2 min 0 min 1215 W/m 31,4 km/h (5 Bft) 97,87 %
28.09.2016 14:44 23,0 C 29,4 C 22,2 C 62 % 0 lf 1023,4 hPa 0,0 l/m 2 min 0 min 939 W/m 31,4 km/h (5 Bft) 97,83 %
28.09.2016 14:46 23,0 C 29,4 C 22,2 C 62 % 0 lf 1023,4 hPa 0,0 l/m 2 min 0 min 611 W/m 25,1 km/h (4 Bft) 97,56 %
28.09.2016 14:48 22,9 C 27,8 C 22,2 C 63 % 0 lf 1023,3 hPa 0,0 l/m 2 min 0 min 475 W/m 27,2 km/h (4 Bft) 96,23 %
28.09.2016 14:50 22,9 C 27,8 C 22,2 C 63 % 0 lf 1023,3 hPa 0,0 l/m 2 min 0 min 490 W/m 27,2 km/h (4 Bft) 95,74 %
28.09.2016 14:52 22,9 C 27,8 C 22,2 C 63 % 0 lf 1023,4 hPa 0,0 l/m 2 min 0 min 554 W/m 23,0 km/h (4 Bft) 95,74 %
28.09.2016 14:54 22,9 C 27,8 C 22,2 C 63 % 0 lf 1023,4 hPa 0,0 l/m 2 min 0 min 491 W/m 18,8 km/h (3 Bft) 97,87 %
28.09.2016 14:56 22,9 C 27,2 C 22,2 C 63 % 0 lf 1023,3 hPa 0,0 l/m 2 min 0 min 544 W/m 27,2 km/h (4 Bft) 95,65 %
28.09.2016 14:58 22,9 C 27,8 C 22,8 C 63 % 0 lf 1023,4 hPa 0,0 l/m 2 min 0 min 567 W/m 23,0 km/h (4 Bft) 100,00 %
28.09.2016 15:00 22,9 C 27,2 C 22,8 C 62 % 0 lf 1023,4 hPa 0,0 l/m 2 min 0 min 479 W/m 39,7 km/h (6 Bft) 95,74 %
28.09.2016 15:02 22,9 C 27,2 C 22,8 C 63 % 0 lf 1023,4 hPa 0,0 l/m 2 min 0 min 460 W/m 25,1 km/h (4 Bft) 97,87 %
28.09.2016 15:04 22,9 C 26,7 C 22,8 C 63 % 0 lf 1023,3 hPa 0,0 l/m 2 min 0 min 494 W/m 25,1 km/h (4 Bft) 100,00 %
28.09.2016 15:06 22,8 C 26,7 C 22,8 C 62 % 0 lf 1023,4 hPa 0,0 l/m 2 min 0 min 508 W/m 23,0 km/h (4 Bft) 100,00 %
28.09.2016 15:08 22,8 C 26,1 C 22,8 C 62 % 0 lf 1023,3 hPa 0,0 l/m 2 min 0 min 460 W/m 25,1 km/h (4 Bft) 97,87 %
28.09.2016 15:10 22,7 C 25,0 C 22,8 C 62 % 0 lf 1023,3 hPa 0,0 l/m 2 min 0 min 433 W/m 25,1 km/h (4 Bft) 97,83 %
28.09.2016 15:12 22,7 C 26,1 C 22,8 C 61 % 0 lf 1023,2 hPa 0,0 l/m 2 min 0 min 512 W/m 31,4 km/h (5 Bft) 95,74 %
28.09.2016 15:14 22,7 C 26,1 C 22,8 C 62 % 0 lf 1023,3 hPa 0,0 l/m 2 min 0 min 564 W/m 31,4 km/h (5 Bft) 97,87 %
28.09.2016 15:16 22,7 C 26,7 C 22,8 C 63 % 0 lf 1023,2 hPa 0,0 l/m 2 min 0 min 554 W/m 25,1 km/h (4 Bft) 97,87 %
28.09.2016 15:18 22,7 C 26,7 C 22,8 C 62 % 0 lf 1023,2 hPa 0,0 l/m 2 min 0 min 524 W/m 23,0 km/h (4 Bft) 95,74 %
28.09.2016 15:20 22,7 C 26,1 C 23,3 C 63 % 0 lf 1023,2 hPa 0,0 l/m 2 min 0 min 490 W/m 31,4 km/h (5 Bft) 97,87 %
28.09.2016 15:22 22,7 C 25,6 C 22,8 C 63 % 0 lf 1023,3 hPa 0,0 l/m 2 min 0 min 430 W/m 27,2 km/h (4 Bft) 95,65 %
28.09.2016 15:24 22,7 C 25,0 C 22,8 C 62 % 0 lf 1023,2 hPa 0,0 l/m 2 min 0 min 375 W/m 35,6 km/h (5 Bft) 95,74 %
28.09.2016 15:26 22,7 C 25,0 C 22,8 C 62 % 0 lf 1023,1 hPa 0,0 l/m 2 min 0 min 356 W/m 20,9 km/h (4 Bft) 95,74 %
28.09.2016 15:28 22,6 C 23,9 C 22,8 C 62 % 0 lf 1023,1 hPa 0,0 l/m 2 min 0 min 346 W/m 20,9 km/h (4 Bft) 97,87 %
28.09.2016 15:30 22,6 C 23,9 C 22,2 C 62 % 0 lf 1023,1 hPa 0,0 l/m 2 min 0 min 344 W/m 20,9 km/h (4 Bft) 95,74 %
28.09.2016 15:32 22,6 C 23,9 C 22,2 C 62 % 0 lf 1023,1 hPa 0,0 l/m 2 min 0 min 344 W/m 23,0 km/h (4 Bft) 97,87 %
28.09.2016 15:34 22,5 C 23,9 C 22,2 C 63 % 0 lf 1023,1 hPa 0,0 l/m 2 min 0 min 342 W/m 16,7 km/h (3 Bft) 97,83 %
28.09.2016 15:36 22,5 C 23,9 C 22,2 C 62 % 0 lf 1023,1 hPa 0,0 l/m 2 min 0 min 350 W/m 27,2 km/h (4 Bft) 98,00 %
28.09.2016 15:38 22,4 C 23,9 C 22,2 C 61 % 0 lf 1023,1 hPa 0,0 l/m 2 min 0 min 354 W/m 18,8 km/h (3 Bft) 97,87 %
28.09.2016 15:40 22,4 C 24,4 C 22,2 C 62 % 0 lf 1023,1 hPa 0,0 l/m 2 min 0 min 367 W/m 23,0 km/h (4 Bft) 97,87 %
28.09.2016 15:42 22,4 C 23,9 C 22,2 C 62 % 0 lf 1023,1 hPa 0,0 l/m 2 min 0 min 386 W/m 18,8 km/h (3 Bft) 95,74 %
28.09.2016 15:44 22,3 C 25,0 C 22,2 C 63 % 0 lf 1023,1 hPa 0,0 l/m 2 min 0 min 412 W/m 18,8 km/h (3 Bft) 97,83 %
28.09.2016 15:46 22,3 C 24,4 C 21,7 C 63 % 0 lf 1023,1 hPa 0,0 l/m 2 min 0 min 462 W/m 20,9 km/h (4 Bft) 97,87 %
28.09.2016 15:48 22,3 C 25,0 C 21,7 C 64 % 0 lf 1023,2 hPa 0,0 l/m 2 min 0 min 550 W/m 18,8 km/h (3 Bft) 95,74 %
28.09.2016 15:50 22,3 C 26,1 C 22,2 C 64 % 0 lf 1023,1 hPa 0,0 l/m 2 min 0 min 462 W/m 18,8 km/h (3 Bft) 93,62 %
28.09.2016 15:52 22,3 C 26,1 C 21,7 C 65 % 0 lf 1023,1 hPa 0,0 l/m 2 min 0 min 339 W/m 20,9 km/h (4 Bft) 93,62 %
28.09.2016 15:54 22,3 C 25,6 C 21,7 C 64 % 0 lf 1023,2 hPa 0,0 l/m 2 min 0 min 308 W/m 23,0 km/h (4 Bft) 93,62 %
28.09.2016 15:56 22,3 C 27,2 C 21,7 C 65 % 0 lf 1023,1 hPa 0,0 l/m 2 min 0 min 422 W/m 20,9 km/h (4 Bft) 93,48 %
28.09.2016 15:58 22,4 C 27,2 C 21,7 C 65 % 0 lf 1023,2 hPa 0,0 l/m 2 min 0 min 444 W/m 16,7 km/h (3 Bft) 93,62 %
28.09.2016 16:00 22,4 C 27,8 C 21,7 C 65 % 0 lf 1023,1 hPa 0,0 l/m 2 min 0 min 482 W/m 35,6 km/h (5 Bft) 91,49 %
28.09.2016 16:02 22,4 C 27,8 C 21,7 C 65 % 0 lf 1023,1 hPa 0,0 l/m 2 min 0 min 522 W/m 25,1 km/h (4 Bft) 91,67 %
28.09.2016 16:04 22,5 C 28,3 C 21,7 C 65 % 0 lf 1023,1 hPa 0,0 l/m 2 min 0 min 438 W/m 23,0 km/h (4 Bft) 89,36 %
28.09.2016 16:06 22,5 C 27,8 C 21,7 C 65 % 0 lf 1023,1 hPa 0,0 l/m 2 min 0 min 438 W/m 23,0 km/h (4 Bft) 97,87 %
28.09.2016 16:08 22,6 C 28,3 C 21,1 C 65 % 0 lf 1023,1 hPa 0,0 l/m 2 min 0 min 451 W/m 20,9 km/h (4 Bft) 95,74 %
28.09.2016 16:10 22,6 C 28,9 C 21,7 C 65 % 0 lf 1023,1 hPa 0,0 l/m 2 min 0 min 465 W/m 23,0 km/h (4 Bft) 93,62 %
28.09.2016 16:12 22,7 C 28,9 C 21,1 C 64 % 0 lf 1023,1 hPa 0,0 l/m 2 min 0 min 462 W/m 29,3 km/h (5 Bft) 95,74 %
28.09.2016 16:14 22,7 C 30,0 C 21,1 C 64 % 0 lf 1023,0 hPa 0,0 l/m 2 min 0 min 457 W/m 16,7 km/h (3 Bft) 95,74 %
28.09.2016 16:16 22,8 C 27,8 C 21,1 C 64 % 0 lf 1023,0 hPa 0,0 l/m 2 min 0 min 415 W/m 27,2 km/h (4 Bft) 95,74 %
28.09.2016 16:18 22,8 C 28,3 C 21,1 C 63 % 0 lf 1023,0 hPa 0,0 l/m 2 min 0 min 428 W/m 27,2 km/h (4 Bft) 95,65 %
28.09.2016 16:20 22,8 C 27,8 C 21,1 C 62 % 0 lf 1023,0 hPa 0,0 l/m 2 min 0 min 428 W/m 29,3 km/h (5 Bft) 95,74 %
28.09.2016 16:22 22,9 C 28,9 C 21,1 C 62 % 0 lf 1023,0 hPa 0,0 l/m 2 min 0 min 428 W/m 31,4 km/h (5 Bft) 93,62 %
28.09.2016 16:24 22,9 C 28,3 C 21,1 C 61 % 0 lf 1023,0 hPa 0,0 l/m 2 min 0 min 424 W/m 25,1 km/h (4 Bft) 97,87 %
28.09.2016 16:26 22,9 C 27,2 C 21,1 C 61 % 0 lf 1023,1 hPa 0,0 l/m 2 min 0 min 416 W/m 27,2 km/h (4 Bft) 97,87 %
28.09.2016 16:28 22,9 C 28,3 C 21,1 C 61 % 0 lf 1023,0 hPa 0,0 l/m 2 min 0 min 414 W/m 27,2 km/h (4 Bft) 95,74 %
28.09.2016 16:30 22,9 C 27,8 C 21,1 C 62 % 0 lf 1023,0 hPa 0,0 l/m 2 min 0 min 406 W/m 20,9 km/h (4 Bft) 95,65 %
28.09.2016 16:32 22,9 C 27,8 C 21,1 C 61 % 0 lf 1023,0 hPa 0,0 l/m 2 min 0 min 399 W/m 23,0 km/h (4 Bft) 95,74 %
28.09.2016 16:34 23,0 C 28,3 C 21,1 C 61 % 0 lf 1023,0 hPa 0,0 l/m 2 min 0 min 393 W/m 27,2 km/h (4 Bft) 97,87 %
28.09.2016 16:36 23,0 C 28,3 C 21,1 C 62 % 0 lf 1023,0 hPa 0,0 l/m 2 min 0 min 389 W/m 23,0 km/h (4 Bft) 95,74 %
28.09.2016 16:38 23,1 C 28,3 C 21,1 C 61 % 0 lf 1023,0 hPa 0,0 l/m 2 min 0 min 384 W/m 23,0 km/h (4 Bft) 93,62 %
28.09.2016 16:40 23,1 C 27,8 C 21,1 C 62 % 0 lf 1023,1 hPa 0,0 l/m 2 min 0 min 385 W/m 29,3 km/h (5 Bft) 97,87 %
28.09.2016 16:42 23,1 C 27,8 C 21,1 C 61 % 0 lf 1022,9 hPa 0,0 l/m 2 min 0 min 374 W/m 23,0 km/h (4 Bft) 97,87 %
28.09.2016 16:44 23,1 C 28,3 C 21,1 C 61 % 0 lf 1023,0 hPa 0,0 l/m 2 min 0 min 373 W/m 25,1 km/h (4 Bft) 97,83 %
28.09.2016 16:46 23,1 C 28,3 C 21,1 C 61 % 0 lf 1022,9 hPa 0,0 l/m 2 min 0 min 369 W/m 27,2 km/h (4 Bft) 98,11 %
28.09.2016 16:48 23,1 C 28,3 C 21,1 C 60 % 0 lf 1023,0 hPa 0,0 l/m 2 min 0 min 362 W/m 23,0 km/h (4 Bft) 97,87 %
28.09.2016 16:50 23,2 C 27,8 C 21,1 C 60 % 0 lf 1023,0 hPa 0,0 l/m 2 min 0 min 357 W/m 27,2 km/h (4 Bft) 97,87 %
28.09.2016 16:52 23,2 C 28,3 C 21,1 C 60 % 0 lf 1023,0 hPa 0,0 l/m 2 min 0 min 353 W/m 25,1 km/h (4 Bft) 97,14 %
28.09.2016 16:54 23,2 C 28,9 C 21,1 C 60 % 0 lf 1022,9 hPa 0,0 l/m 2 min 0 min 348 W/m 23,0 km/h (4 Bft) 96,15 %
28.09.2016 16:56 23,2 C 29,4 C 21,1 C 60 % 0 lf 1022,9 hPa 0,0 l/m 2 min 0 min 351 W/m 18,8 km/h (3 Bft) 95,74 %
28.09.2016 16:58 23,2 C 28,9 C 21,1 C 60 % 0 lf 1023,0 hPa 0,0 l/m 2 min 0 min 337 W/m 29,3 km/h (5 Bft) 97,87 %
28.09.2016 17:00 23,2 C 28,3 C 21,1 C 60 % 0 lf 1023,0 hPa 0,0 l/m 2 min 0 min 343 W/m 25,1 km/h (4 Bft) 97,87 %
28.09.2016 17:02 23,2 C 28,3 C 21,1 C 60 % 0 lf 1022,9 hPa 0,0 l/m 2 min 0 min 342 W/m 25,1 km/h (4 Bft) 97,87 %
28.09.2016 17:04 23,2 C 28,3 C 21,1 C 59 % 0 lf 1022,9 hPa 0,0 l/m 2 min 0 min 333 W/m 25,1 km/h (4 Bft) 95,74 %
28.09.2016 17:06 23,2 C 27,2 C 21,1 C 58 % 0 lf 1023,0 hPa 0,0 l/m 2 min 0 min 321 W/m 33,5 km/h (5 Bft) 97,56 %
28.09.2016 17:08 23,2 C 26,7 C 21,1 C 58 % 0 lf 1023,0 hPa 0,0 l/m 2 min 0 min 331 W/m 31,4 km/h (5 Bft) 97,87 %
28.09.2016 17:10 23,1 C 25,6 C 21,1 C 59 % 0 lf 1022,9 hPa 0,0 l/m 2 min 0 min 289 W/m 25,1 km/h (4 Bft) 95,74 %
28.09.2016 17:12 23,1 C 25,0 C 20,6 C 58 % 0 lf 1023,0 hPa 0,0 l/m 2 min 0 min 204 W/m 29,3 km/h (5 Bft) 95,74 %
28.09.2016 17:14 22,9 C 24,4 C 20,6 C 58 % 0 lf 1023,0 hPa 0,0 l/m 2 min 0 min 174 W/m 37,7 km/h (5 Bft) 97,87 %
28.09.2016 17:16 22,9 C 23,9 C 20,6 C 58 % 0 lf 1023,0 hPa 0,0 l/m 2 min 0 min 177 W/m 27,2 km/h (4 Bft) 95,74 %
28.09.2016 17:18 22,8 C 24,4 C 20,6 C 58 % 0 lf 1023,0 hPa 0,0 l/m 2 min 0 min 225 W/m 27,2 km/h (4 Bft) 97,83 %
28.09.2016 17:20 22,7 C 25,0 C 20,6 C 58 % 0 lf 1023,1 hPa 0,0 l/m 2 min 0 min 254 W/m 23,0 km/h (4 Bft) 97,87 %
28.09.2016 17:22 22,7 C 25,0 C 20,6 C 59 % 0 lf 1023,0 hPa 0,0 l/m 2 min 0 min 231 W/m 27,2 km/h (4 Bft) 97,87 %
28.09.2016 17:24 22,7 C 25,0 C 20,6 C 59 % 0 lf 1023,0 hPa 0,0 l/m 2 min 0 min 213 W/m 27,2 km/h (4 Bft) 97,87 %
28.09.2016 17:26 22,6 C 24,4 C 20,6 C 59 % 0 lf 1023,0 hPa 0,0 l/m 2 min 0 min 196 W/m 27,2 km/h (4 Bft) 91,49 %
28.09.2016 17:28 22,6 C 23,9 C 20,6 C 60 % 0 lf 1023,1 hPa 0,0 l/m 2 min 0 min 179 W/m 23,0 km/h (4 Bft) 95,74 %
28.09.2016 17:30 22,5 C 23,3 C 20,6 C 60 % 0 lf 1023,1 hPa 0,0 l/m 2 min 0 min 165 W/m 29,3 km/h (5 Bft) 97,83 %
28.09.2016 17:32 22,4 C 23,3 C 20,0 C 60 % 0 lf 1023,1 hPa 0,0 l/m 2 min 0 min 153 W/m 18,8 km/h (3 Bft) 97,87 %
28.09.2016 17:34 22,4 C 22,8 C 20,0 C 60 % 0 lf 1023,1 hPa 0,0 l/m 2 min 0 min 148 W/m 23,0 km/h (4 Bft) 100,00 %
28.09.2016 17:36 22,3 C 22,8 C 20,0 C 61 % 0 lf 1023,0 hPa 0,0 l/m 2 min 0 min 157 W/m 23,0 km/h (4 Bft) 100,00 %
28.09.2016 17:38 22,2 C 22,8 C 20,0 C 60 % 0 lf 1023,0 hPa 0,0 l/m 2 min 0 min 166 W/m 25,1 km/h (4 Bft) 100,00 %
28.09.2016 17:40 22,2 C 22,8 C 20,0 C 61 % 0 lf 1023,0 hPa 0,0 l/m 2 min 0 min 165 W/m 23,0 km/h (4 Bft) 100,00 %
28.09.2016 17:42 22,1 C 22,8 C 20,0 C 60 % 0 lf 1023,1 hPa 0,0 l/m 2 min 0 min 162 W/m 25,1 km/h (4 Bft) 97,83 %
28.09.2016 17:44 22,1 C 22,8 C 20,0 C 60 % 0 lf 1023,1 hPa 0,0 l/m 2 min 0 min 159 W/m 27,2 km/h (4 Bft) 100,00 %
28.09.2016 17:46 22,0 C 22,2 C 20,0 C 60 % 0 lf 1023,1 hPa 0,0 l/m 2 min 0 min 150 W/m 20,9 km/h (4 Bft) 91,49 %
28.09.2016 17:48 21,9 C 22,2 C 20,0 C 60 % 0 lf 1023,0 hPa 0,0 l/m 2 min 0 min 138 W/m 27,2 km/h (4 Bft) 100,00 %
28.09.2016 17:50 21,9 C 22,2 C 20,0 C 60 % 0 lf 1023,0 hPa 0,0 l/m 2 min 0 min 135 W/m 20,9 km/h (4 Bft) 97,87 %
28.09.2016 17:52 21,8 C 22,2 C 20,0 C 60 % 0 lf 1023,1 hPa 0,0 l/m 2 min 0 min 134 W/m 23,0 km/h (4 Bft) 100,00 %
28.09.2016 17:54 21,8 C 21,7 C 20,0 C 60 % 0 lf 1023,0 hPa 0,0 l/m 2 min 0 min 134 W/m 23,0 km/h (4 Bft) 97,87 %
28.09.2016 17:56 21,8 C 21,7 C 20,0 C 60 % 0 lf 1023,1 hPa 0,0 l/m 2 min 0 min 133 W/m 16,7 km/h (3 Bft) 100,00 %
28.09.2016 17:58 21,7 C 21,7 C 20,0 C 60 % 0 lf 1023,1 hPa 0,0 l/m 2 min 0 min 132 W/m 18,8 km/h (3 Bft) 97,87 %
28.09.2016 18:00 21,7 C 21,7 C 19,4 C 61 % 0 lf 1023,1 hPa 0,0 l/m 2 min 0 min 127 W/m 14,6 km/h (3 Bft) 97,87 %
28.09.2016 18:02 21,7 C 21,7 C 19,4 C 61 % 0 lf 1023,0 hPa 0,0 l/m 2 min 0 min 126 W/m 16,7 km/h (3 Bft) 95,83 %
28.09.2016 18:06 21,6 C 21,7 C 19,4 C 61 % 0 lf 1023,0 hPa 0,0 l/m 2 min 0 min 121 W/m 27,2 km/h (4 Bft) 96,81 %
28.09.2016 18:08 21,6 C 21,7 C 19,4 C 61 % 0 lf 1023,1 hPa 0,0 l/m 2 min 0 min 120 W/m 20,9 km/h (4 Bft) 91,49 %
28.09.2016 18:10 21,5 C 21,7 C 19,4 C 61 % 0 lf 1023,1 hPa 0,0 l/m 2 min 0 min 118 W/m 18,8 km/h (3 Bft) 95,74 %
28.09.2016 18:12 21,5 C 21,7 C 19,4 C 61 % 0 lf 1023,1 hPa 0,0 l/m 2 min 0 min 118 W/m 16,7 km/h (3 Bft) 97,87 %
28.09.2016 18:14 21,4 C 21,7 C 19,4 C 61 % 0 lf 1023,1 hPa 0,0 l/m 2 min 0 min 118 W/m 16,7 km/h (3 Bft) 95,74 %
28.09.2016 18:16 21,4 C 21,7 C 19,4 C 61 % 0 lf 1023,1 hPa 0,0 l/m 2 min 0 min 119 W/m 12,6 km/h (3 Bft) 97,83 %
28.09.2016 18:18 21,4 C 21,7 C 19,4 C 61 % 0 lf 1023,0 hPa 0,0 l/m 2 min 0 min 121 W/m 14,6 km/h (3 Bft) 93,62 %
28.09.2016 18:20 21,4 C 21,7 C 19,4 C 61 % 0 lf 1023,1 hPa 0,0 l/m 2 min 0 min 116 W/m 16,7 km/h (3 Bft) 97,87 %
28.09.2016 18:22 21,3 C 21,7 C 19,4 C 62 % 0 lf 1023,1 hPa 0,0 l/m 2 min 0 min 108 W/m 18,8 km/h (3 Bft) 97,87 %
28.09.2016 18:24 21,3 C 21,1 C 19,4 C 62 % 0 lf 1023,1 hPa 0,0 l/m 2 min 0 min 105 W/m 12,6 km/h (3 Bft) 93,62 %
28.09.2016 18:26 21,3 C 21,7 C 19,4 C 62 % 0 lf 1023,1 hPa 0,0 l/m 2 min 0 min 108 W/m 12,6 km/h (3 Bft) 97,87 %
28.09.2016 18:28 21,3 C 22,2 C 19,4 C 62 % 0 lf 1023,1 hPa 0,0 l/m 2 min 0 min 116 W/m 18,8 km/h (3 Bft) 97,83 %
28.09.2016 18:30 21,2 C 21,7 C 19,4 C 62 % 0 lf 1023,2 hPa 0,0 l/m 2 min 0 min 108 W/m 12,6 km/h (3 Bft) 95,74 %
28.09.2016 18:32 21,2 C 22,2 C 19,4 C 62 % 0 lf 1023,1 hPa 0,0 l/m 2 min 0 min 112 W/m 14,6 km/h (3 Bft) 95,74 %
28.09.2016 18:34 21,2 C 22,2 C 19,4 C 62 % 0 lf 1023,1 hPa 0,0 l/m 2 min 0 min 113 W/m 12,6 km/h (3 Bft) 95,74 %
28.09.2016 18:36 21,2 C 21,7 C 18,9 C 62 % 0 lf 1023,2 hPa 0,0 l/m 2 min 0 min 107 W/m 12,6 km/h (3 Bft) 100,00 %
28.09.2016 18:38 21,2 C 21,1 C 18,9 C 62 % 0 lf 1023,1 hPa 0,0 l/m 2 min 0 min 100 W/m 14,6 km/h (3 Bft) 93,62 %
28.09.2016 18:40 21,1 C 21,1 C 18,9 C 62 % 0 lf 1023,0 hPa 0,0 l/m 2 min 0 min 92 W/m 12,6 km/h (3 Bft) 97,83 %
28.09.2016 18:42 21,1 C 21,1 C 18,9 C 62 % 0 lf 1023,1 hPa 0,0 l/m 2 min 0 min 88 W/m 20,9 km/h (4 Bft) 95,74 %
28.09.2016 18:44 21,1 C 21,1 C 18,9 C 62 % 0 lf 1023,1 hPa 0,0 l/m 2 min 0 min 84 W/m 10,5 km/h (2 Bft) 97,87 %
28.09.2016 18:46 21,1 C 21,1 C 18,9 C 62 % 0 lf 1023,1 hPa 0,0 l/m 2 min 0 min 82 W/m 14,6 km/h (3 Bft) 95,74 %
28.09.2016 18:48 21,1 C 20,6 C 18,9 C 62 % 0 lf 1023,1 hPa 0,0 l/m 2 min 0 min 80 W/m 14,6 km/h (3 Bft) 95,74 %
28.09.2016 18:50 21,0 C 20,6 C 18,9 C 62 % 0 lf 1023,1 hPa 0,0 l/m 2 min 0 min 78 W/m 12,6 km/h (3 Bft) 95,74 %
28.09.2016 18:52 21,0 C 20,6 C 18,3 C 62 % 0 lf 1023,0 hPa 0,0 l/m 2 min 0 min 76 W/m 10,5 km/h (2 Bft) 97,83 %
28.09.2016 18:54 21,0 C 20,6 C 18,3 C 62 % 0 lf 1023,0 hPa 0,0 l/m 2 min 0 min 74 W/m 14,6 km/h (3 Bft) 97,87 %
28.09.2016 18:56 20,9 C 20,6 C 18,3 C 62 % 0 lf 1023,0 hPa 0,0 l/m 2 min 0 min 71 W/m 8,4 km/h (2 Bft) 97,87 %
28.09.2016 18:58 20,9 C 20,6 C 18,3 C 62 % 0 lf 1023,1 hPa 0,0 l/m 2 min 0 min 69 W/m 12,6 km/h (3 Bft) 95,74 %
28.09.2016 19:00 20,9 C 20,6 C 18,3 C 62 % 0 lf 1023,0 hPa 0,0 l/m 2 min 0 min 66 W/m 10,5 km/h (2 Bft) 97,87 %
28.09.2016 19:02 20,8 C 20,6 C 18,3 C 62 % 0 lf 1023,1 hPa 0,0 l/m 2 min 0 min 63 W/m 14,6 km/h (3 Bft) 96,00 %
28.09.2016 19:04 20,8 C 20,0 C 18,3 C 62 % 0 lf 1023,0 hPa 0,0 l/m 2 min 0 min 56 W/m 14,6 km/h (3 Bft) 95,65 %
28.09.2016 19:06 20,8 C 20,0 C 17,8 C 62 % 0 lf 1023,0 hPa 0,0 l/m 2 min 0 min 51 W/m 10,5 km/h (2 Bft) 93,88 %
28.09.2016 19:08 20,7 C 20,0 C 17,8 C 63 % 0 lf 1023,0 hPa 0,0 l/m 0 min 0 min 47 W/m 12,6 km/h (3 Bft) 93,62 %
28.09.2016 19:10 20,7 C 20,0 C 17,8 C 62 % 0 lf 1023,0 hPa 0,0 l/m 0 min 0 min 43 W/m 10,5 km/h (2 Bft) 93,62 %
28.09.2016 19:12 20,7 C 20,0 C 17,8 C 63 % 0 lf 1023,0 hPa 0,0 l/m 0 min 0 min 41 W/m 10,5 km/h (2 Bft) 91,49 %
28.09.2016 19:14 20,6 C 20,0 C 17,8 C 63 % 0 lf 1023,1 hPa 0,0 l/m 0 min 0 min 40 W/m 8,4 km/h (2 Bft) 93,48 %
28.09.2016 19:16 20,6 C 20,0 C 17,8 C 63 % 0 lf 1023,1 hPa 0,0 l/m 0 min 0 min 39 W/m 10,5 km/h (2 Bft) 93,62 %
28.09.2016 19:18 20,6 C 20,0 C 17,8 C 63 % 0 lf 1023,0 hPa 0,0 l/m 0 min 0 min 38 W/m 8,4 km/h (2 Bft) 95,74 %
28.09.2016 19:20 20,6 C 19,4 C 17,2 C 63 % 0 lf 1023,0 hPa 0,0 l/m 0 min 0 min 37 W/m 10,5 km/h (2 Bft) 95,74 %
28.09.2016 19:22 20,5 C 19,4 C 17,2 C 63 % 0 lf 1023,0 hPa 0,0 l/m 0 min 0 min 37 W/m 8,4 km/h (2 Bft) 93,62 %
28.09.2016 19:24 20,5 C 19,4 C 17,2 C 64 % 0 lf 1023,0 hPa 0,0 l/m 0 min 0 min 37 W/m 12,6 km/h (3 Bft) 93,62 %
28.09.2016 19:26 20,4 C 19,4 C 17,2 C 64 % 0 lf 1023,0 hPa 0,0 l/m 0 min 0 min 37 W/m 12,6 km/h (3 Bft) 89,13 %
28.09.2016 19:28 20,4 C 19,4 C 17,2 C 64 % 0 lf 1023,0 hPa 0,0 l/m 0 min 0 min 37 W/m 8,4 km/h (2 Bft) 93,62 %
28.09.2016 19:30 20,3 C 19,4 C 17,2 C 64 % 0 lf 1022,9 hPa 0,0 l/m 0 min 0 min 36 W/m 10,5 km/h (2 Bft) 95,74 %
28.09.2016 19:32 20,3 C 19,4 C 17,2 C 64 % 0 lf 1023,0 hPa 0,0 l/m 0 min 0 min 0 W/m 10,5 km/h (2 Bft) 95,74 %
28.09.2016 19:34 20,3 C 19,4 C 17,2 C 64 % 0 lf 1022,9 hPa 0,0 l/m 0 min 0 min 0 W/m 12,6 km/h (3 Bft) 95,74 %
28.09.2016 19:36 20,2 C 19,4 C 17,2 C 64 % 0 lf 1022,9 hPa 0,0 l/m 0 min 0 min 0 W/m 12,6 km/h (3 Bft) 93,62 %
28.09.2016 19:38 20,2 C 19,4 C 17,2 C 65 % 0 lf 1023,0 hPa 0,0 l/m 0 min 0 min 0 W/m 12,6 km/h (3 Bft) 95,65 %
28.09.2016 19:40 20,2 C 19,4 C 17,2 C 65 % 0 lf 1022,8 hPa 0,0 l/m 0 min 0 min 0 W/m 12,6 km/h (3 Bft) 95,74 %
28.09.2016 19:42 20,1 C 19,4 C 17,2 C 65 % 0 lf 1023,0 hPa 0,0 l/m 0 min 0 min 0 W/m 8,4 km/h (2 Bft) 95,74 %
28.09.2016 19:44 20,1 C 19,4 C 17,2 C 65 % 0 lf 1023,0 hPa 0,0 l/m 0 min 0 min 0 W/m 14,6 km/h (3 Bft) 89,36 %
28.09.2016 19:46 20,1 C 19,4 C 17,2 C 65 % 0 lf 1023,0 hPa 0,0 l/m 0 min 0 min 0 W/m 12,6 km/h (3 Bft) 95,74 %
28.09.2016 19:48 20,0 C 19,4 C 17,2 C 66 % 0 lf 1023,0 hPa 0,0 l/m 0 min 0 min 0 W/m 8,4 km/h (2 Bft) 93,62 %
28.09.2016 19:50 19,9 C 19,4 C 17,2 C 66 % 0 lf 1022,9 hPa 0,0 l/m 0 min 0 min 0 W/m 8,4 km/h (2 Bft) 95,65 %
28.09.2016 19:52 19,9 C 19,4 C 17,2 C 66 % 0 lf 1022,9 hPa 0,0 l/m 0 min 0 min 0 W/m 12,6 km/h (3 Bft) 93,62 %
28.09.2016 19:54 19,9 C 19,4 C 17,2 C 66 % 0 lf 1022,9 hPa 0,0 l/m 0 min 0 min 0 W/m 10,5 km/h (2 Bft) 93,62 %
28.09.2016 19:56 19,8 C 19,4 C 17,2 C 66 % 0 lf 1022,8 hPa 0,0 l/m 0 min 0 min 0 W/m 12,6 km/h (3 Bft) 95,74 %
28.09.2016 19:58 19,8 C 19,4 C 17,2 C 66 % 0 lf 1022,9 hPa 0,0 l/m 0 min 0 min 0 W/m 14,6 km/h (3 Bft) 91,49 %
28.09.2016 20:00 19,8 C 19,4 C 17,2 C 66 % 0 lf 1022,8 hPa 0,0 l/m 0 min 0 min 0 W/m 8,4 km/h (2 Bft) 93,48 %
28.09.2016 20:02 19,8 C 18,9 C 17,2 C 67 % 0 lf 1022,9 hPa 0,0 l/m 0 min 0 min 0 W/m 10,5 km/h (2 Bft) 93,02 %
28.09.2016 20:04 19,8 C 19,4 C 17,2 C 67 % 0 lf 1022,9 hPa 0,0 l/m 0 min 0 min 0 W/m 14,6 km/h (3 Bft) 95,74 %
28.09.2016 20:06 19,7 C 19,4 C 17,2 C 67 % 0 lf 1022,9 hPa 0,0 l/m 0 min 0 min 0 W/m 12,6 km/h (3 Bft) 96,08 %
28.09.2016 20:08 19,7 C 19,4 C 17,2 C 67 % 0 lf 1022,9 hPa 0,0 l/m 0 min 0 min 0 W/m 10,5 km/h (2 Bft) 95,35 %
28.09.2016 20:10 19,7 C 19,4 C 17,2 C 67 % 0 lf 1022,9 hPa 0,0 l/m 0 min 0 min 0 W/m 14,6 km/h (3 Bft) 93,62 %
28.09.2016 20:12 19,7 C 19,4 C 17,2 C 67 % 0 lf 1022,8 hPa 0,0 l/m 0 min 0 min 0 W/m 8,4 km/h (2 Bft) 95,74 %
28.09.2016 20:14 19,7 C 18,9 C 16,7 C 67 % 0 lf 1022,9 hPa 0,0 l/m 0 min 0 min 0 W/m 8,4 km/h (2 Bft) 95,74 %
28.09.2016 20:16 19,7 C 18,9 C 16,7 C 68 % 0 lf 1022,9 hPa 0,0 l/m 0 min 0 min 0 W/m 12,6 km/h (3 Bft) 97,87 %
28.09.2016 20:18 19,6 C 18,9 C 16,7 C 68 % 0 lf 1022,8 hPa 0,0 l/m 0 min 0 min 0 W/m 6,3 km/h (2 Bft) 97,87 %
28.09.2016 20:20 19,6 C 18,9 C 16,7 C 68 % 0 lf 1022,9 hPa 0,0 l/m 0 min 0 min 0 W/m 10,5 km/h (2 Bft) 97,87 %
28.09.2016 20:22 19,6 C 18,9 C 16,7 C 68 % 0 lf 1022,9 hPa 0,0 l/m 0 min 0 min 0 W/m 20,9 km/h (4 Bft) 95,74 %
28.09.2016 20:24 19,6 C 18,9 C 17,2 C 68 % 0 lf 1022,9 hPa 0,0 l/m 0 min 0 min 0 W/m 12,6 km/h (3 Bft) 97,83 %
28.09.2016 20:26 19,5 C 18,9 C 17,2 C 68 % 0 lf 1022,8 hPa 0,0 l/m 0 min 0 min 0 W/m 10,5 km/h (2 Bft) 93,62 %
28.09.2016 20:28 19,5 C 18,9 C 17,2 C 69 % 0 lf 1022,8 hPa 0,0 l/m 0 min 0 min 0 W/m 12,6 km/h (3 Bft) 95,74 %
28.09.2016 20:30 19,5 C 18,9 C 17,2 C 69 % 0 lf 1022,7 hPa 0,0 l/m 0 min 0 min 0 W/m 12,6 km/h (3 Bft) 95,74 %
28.09.2016 20:32 19,4 C 18,9 C 17,2 C 69 % 0 lf 1022,7 hPa 0,0 l/m 0 min 0 min 0 W/m 12,6 km/h (3 Bft) 97,87 %
28.09.2016 20:34 19,4 C 18,9 C 17,2 C 69 % 0 lf 1022,7 hPa 0,0 l/m 0 min 0 min 0 W/m 18,8 km/h (3 Bft) 97,83 %
28.09.2016 20:36 19,4 C 18,9 C 17,2 C 70 % 0 lf 1022,7 hPa 0,0 l/m 0 min 0 min 0 W/m 12,6 km/h (3 Bft) 98,00 %
28.09.2016 20:38 19,4 C 18,9 C 17,2 C 70 % 0 lf 1022,6 hPa 0,0 l/m 0 min 0 min 0 W/m 16,7 km/h (3 Bft) 100,00 %
28.09.2016 20:40 19,4 C 18,9 C 17,2 C 70 % 0 lf 1022,6 hPa 0,0 l/m 0 min 0 min 0 W/m 10,5 km/h (2 Bft) 100,00 %
28.09.2016 20:42 19,4 C 18,9 C 17,2 C 70 % 0 lf 1022,7 hPa 0,0 l/m 0 min 0 min 0 W/m 14,6 km/h (3 Bft) 100,00 %
28.09.2016 20:44 19,4 C 18,9 C 17,2 C 70 % 0 lf 1022,7 hPa 0,0 l/m 0 min 0 min 0 W/m 18,8 km/h (3 Bft) 100,00 %
28.09.2016 20:46 19,4 C 18,9 C 17,2 C 70 % 0 lf 1022,7 hPa 0,0 l/m 0 min 0 min 0 W/m 20,9 km/h (4 Bft) 100,00 %
28.09.2016 20:48 19,4 C 18,9 C 17,2 C 71 % 0 lf 1022,7 hPa 0,0 l/m 0 min 0 min 0 W/m 20,9 km/h (4 Bft) 97,87 %
28.09.2016 20:50 19,4 C 18,9 C 17,2 C 71 % 0 lf 1022,7 hPa 0,0 l/m 0 min 0 min 0 W/m 14,6 km/h (3 Bft) 100,00 %
28.09.2016 20:52 19,4 C 18,9 C 17,2 C 71 % 0 lf 1022,7 hPa 0,0 l/m 0 min 0 min 0 W/m 16,7 km/h (3 Bft) 95,74 %
28.09.2016 20:54 19,4 C 18,9 C 17,2 C 71 % 0 lf 1022,6 hPa 0,0 l/m 0 min 0 min 0 W/m 10,5 km/h (2 Bft) 100,00 %
28.09.2016 20:56 19,4 C 19,4 C 17,2 C 71 % 0 lf 1022,6 hPa 0,0 l/m 0 min 0 min 0 W/m 14,6 km/h (3 Bft) 100,00 %
28.09.2016 20:58 19,4 C 18,9 C 17,2 C 71 % 0 lf 1022,6 hPa 0,0 l/m 0 min 0 min 0 W/m 12,6 km/h (3 Bft) 100,00 %
28.09.2016 21:00 19,3 C 18,9 C 17,2 C 71 % 0 lf 1022,6 hPa 0,0 l/m 0 min 0 min 0 W/m 12,6 km/h (3 Bft) 97,87 %
28.09.2016 21:02 19,3 C 18,9 C 17,2 C 71 % 0 lf 1022,6 hPa 0,0 l/m 0 min 0 min 0 W/m 20,9 km/h (4 Bft) 100,00 %
28.09.2016 21:04 19,3 C 18,9 C 17,2 C 71 % 0 lf 1022,6 hPa 0,0 l/m 0 min 0 min 0 W/m 16,7 km/h (3 Bft) 97,87 %
28.09.2016 21:06 19,3 C 18,9 C 17,2 C 71 % 0 lf 1022,6 hPa 0,0 l/m 0 min 0 min 0 W/m 10,5 km/h (2 Bft) 100,00 %
28.09.2016 21:08 19,3 C 18,9 C 17,2 C 71 % 0 lf 1022,6 hPa 0,0 l/m 0 min 0 min 0 W/m 12,6 km/h (3 Bft) 100,00 %
28.09.2016 21:10 19,3 C 18,9 C 17,2 C 71 % 0 lf 1022,6 hPa 0,0 l/m 0 min 0 min 0 W/m 8,4 km/h (2 Bft) 100,00 %
28.09.2016 21:12 19,3 C 18,9 C 16,7 C 71 % 0 lf 1022,6 hPa 0,0 l/m 0 min 0 min 0 W/m 10,5 km/h (2 Bft) 100,00 %
28.09.2016 21:14 19,3 C 18,9 C 16,7 C 71 % 0 lf 1022,6 hPa 0,0 l/m 0 min 0 min 0 W/m 12,6 km/h (3 Bft) 100,00 %
28.09.2016 21:16 19,2 C 18,9 C 16,7 C 71 % 0 lf 1022,6 hPa 0,0 l/m 0 min 0 min 0 W/m 12,6 km/h (3 Bft) 97,87 %
28.09.2016 21:18 19,2 C 18,9 C 16,7 C 71 % 0 lf 1022,6 hPa 0,0 l/m 0 min 0 min 0 W/m 12,6 km/h (3 Bft) 100,00 %
28.09.2016 21:20 19,2 C 18,9 C 16,7 C 71 % 0 lf 1022,6 hPa 0,0 l/m 0 min 0 min 0 W/m 8,4 km/h (2 Bft) 97,83 %
28.09.2016 21:22 19,2 C 18,9 C 16,7 C 71 % 0 lf 1022,6 hPa 0,0 l/m 0 min 0 min 0 W/m 14,6 km/h (3 Bft) 97,87 %
28.09.2016 21:24 19,2 C 18,9 C 16,7 C 71 % 0 lf 1022,6 hPa 0,0 l/m 0 min 0 min 0 W/m 14,6 km/h (3 Bft) 97,87 %
28.09.2016 21:26 19,2 C 18,9 C 16,7 C 71 % 0 lf 1022,5 hPa 0,0 l/m 0 min 0 min 0 W/m 16,7 km/h (3 Bft) 97,87 %
28.09.2016 21:28 19,2 C 18,9 C 16,7 C 72 % 0 lf 1022,6 hPa 0,0 l/m 0 min 0 min 0 W/m 16,7 km/h (3 Bft) 100,00 %
28.09.2016 21:30 19,1 C 18,9 C 16,7 C 72 % 0 lf 1022,6 hPa 0,0 l/m 0 min 0 min 0 W/m 10,5 km/h (2 Bft) 95,74 %
28.09.2016 21:32 19,1 C 18,9 C 16,7 C 72 % 0 lf 1022,6 hPa 0,0 l/m 0 min 0 min 0 W/m 10,5 km/h (2 Bft) 100,00 %
28.09.2016 21:34 19,1 C 18,9 C 16,7 C 72 % 0 lf 1022,5 hPa 0,0 l/m 0 min 0 min 0 W/m 10,5 km/h (2 Bft) 97,87 %
28.09.2016 21:36 19,1 C 18,9 C 16,7 C 72 % 0 lf 1022,6 hPa 0,0 l/m 0 min 0 min 0 W/m 12,6 km/h (3 Bft) 97,87 %
28.09.2016 21:38 19,1 C 18,9 C 16,7 C 72 % 0 lf 1022,5 hPa 0,0 l/m 0 min 0 min 0 W/m 20,9 km/h (4 Bft) 95,74 %
28.09.2016 21:40 19,1 C 18,9 C 16,7 C 73 % 0 lf 1022,5 hPa 0,0 l/m 0 min 0 min 0 W/m 16,7 km/h (3 Bft) 97,87 %
28.09.2016 21:42 19,1 C 18,9 C 16,7 C 73 % 0 lf 1022,5 hPa 0,0 l/m 0 min 0 min 0 W/m 18,8 km/h (3 Bft) 97,87 %
28.09.2016 21:44 19,1 C 18,9 C 17,2 C 73 % 0 lf 1022,5 hPa 0,0 l/m 0 min 0 min 0 W/m 20,9 km/h (4 Bft) 95,65 %
28.09.2016 21:46 19,1 C 18,9 C 17,2 C 74 % 0 lf 1022,5 hPa 0,0 l/m 0 min 0 min 0 W/m 18,8 km/h (3 Bft) 91,49 %
28.09.2016 21:48 19,1 C 18,9 C 17,2 C 74 % 0 lf 1022,5 hPa 0,0 l/m 0 min 0 min 0 W/m 23,0 km/h (4 Bft) 97,87 %
28.09.2016 21:50 19,0 C 18,9 C 17,2 C 74 % 0 lf 1022,4 hPa 0,0 l/m 0 min 0 min 0 W/m 8,4 km/h (2 Bft) 97,87 %
28.09.2016 21:52 19,1 C 18,9 C 16,7 C 74 % 0 lf 1022,5 hPa 0,0 l/m 0 min 0 min 0 W/m 12,6 km/h (3 Bft) 97,87 %
28.09.2016 21:54 19,0 C 18,9 C 16,7 C 74 % 0 lf 1022,4 hPa 0,0 l/m 0 min 0 min 0 W/m 10,5 km/h (2 Bft) 95,74 %
28.09.2016 21:56 19,0 C 18,9 C 16,7 C 74 % 0 lf 1022,4 hPa 0,0 l/m 0 min 0 min 0 W/m 25,1 km/h (4 Bft) 97,83 %
28.09.2016 21:58 19,0 C 18,9 C 16,7 C 75 % 0 lf 1022,4 hPa 0,0 l/m 0 min 0 min 0 W/m 16,7 km/h (3 Bft) 95,74 %
28.09.2016 22:00 19,0 C 18,9 C 16,7 C 75 % 0 lf 1022,4 hPa 0,0 l/m 0 min 0 min 0 W/m 12,6 km/h (3 Bft) 95,74 %
28.09.2016 22:02 19,0 C 18,9 C 16,7 C 75 % 0 lf 1022,4 hPa 0,0 l/m 0 min 0 min 0 W/m 14,6 km/h (3 Bft) 93,62 %
28.09.2016 22:04 18,9 C 18,9 C 16,7 C 75 % 0 lf 1022,3 hPa 0,0 l/m 0 min 0 min 0 W/m 18,8 km/h (3 Bft) 95,74 %
28.09.2016 22:06 18,9 C 18,9 C 16,7 C 75 % 0 lf 1022,3 hPa 0,0 l/m 0 min 0 min 0 W/m 16,7 km/h (3 Bft) 95,74 %
28.09.2016 22:08 18,9 C 18,9 C 17,2 C 75 % 0 lf 1022,3 hPa 0,0 l/m 0 min 0 min 0 W/m 14,6 km/h (3 Bft) 93,48 %
28.09.2016 22:10 18,9 C 18,9 C 16,7 C 75 % 0 lf 1022,2 hPa 0,0 l/m 0 min 0 min 0 W/m 12,6 km/h (3 Bft) 93,62 %
28.09.2016 22:12 18,9 C 18,9 C 16,7 C 75 % 0 lf 1022,1 hPa 0,0 l/m 0 min 0 min 0 W/m 14,6 km/h (3 Bft) 93,62 %
28.09.2016 22:14 18,9 C 18,9 C 16,7 C 75 % 0 lf 1022,3 hPa 0,0 l/m 0 min 0 min 0 W/m 16,7 km/h (3 Bft) 93,62 %
28.09.2016 22:16 18,9 C 18,9 C 16,7 C 76 % 0 lf 1022,2 hPa 0,0 l/m 0 min 0 min 0 W/m 18,8 km/h (3 Bft) 91,49 %
28.09.2016 22:18 18,9 C 18,9 C 17,2 C 76 % 0 lf 1022,3 hPa 0,0 l/m 0 min 0 min 0 W/m 20,9 km/h (4 Bft) 93,48 %
28.09.2016 22:20 18,9 C 18,9 C 16,7 C 76 % 0 lf 1022,3 hPa 0,0 l/m 0 min 0 min 0 W/m 23,0 km/h (4 Bft) 91,49 %
28.09.2016 22:22 18,9 C 18,9 C 16,7 C 76 % 0 lf 1022,2 hPa 0,0 l/m 0 min 0 min 0 W/m 12,6 km/h (3 Bft) 95,74 %
28.09.2016 22:24 18,9 C 18,9 C 16,7 C 76 % 0 lf 1022,3 hPa 0,0 l/m 0 min 0 min 0 W/m 18,8 km/h (3 Bft) 93,62 %
28.09.2016 22:26 18,9 C 18,9 C 16,7 C 76 % 0 lf 1022,3 hPa 0,0 l/m 0 min 0 min 0 W/m 14,6 km/h (3 Bft) 91,49 %
28.09.2016 22:28 18,9 C 18,9 C 16,7 C 76 % 0 lf 1022,3 hPa 0,0 l/m 0 min 0 min 0 W/m 20,9 km/h (4 Bft) 95,74 %
28.09.2016 22:30 18,9 C 18,9 C 17,2 C 76 % 0 lf 1022,3 hPa 0,0 l/m 0 min 0 min 0 W/m 23,0 km/h (4 Bft) 95,65 %
28.09.2016 22:32 18,9 C 18,9 C 17,2 C 76 % 0 lf 1022,4 hPa 0,0 l/m 0 min 0 min 0 W/m 16,7 km/h (3 Bft) 93,62 %
28.09.2016 22:34 18,9 C 18,9 C 17,2 C 76 % 0 lf 1022,3 hPa 0,0 l/m 0 min 0 min 0 W/m 16,7 km/h (3 Bft) 95,74 %
28.09.2016 22:36 18,9 C 18,9 C 17,2 C 76 % 0 lf 1022,4 hPa 0,0 l/m 0 min 0 min 0 W/m 20,9 km/h (4 Bft) 91,49 %
28.09.2016 22:38 18,9 C 18,9 C 16,7 C 76 % 0 lf 1022,4 hPa 0,0 l/m 0 min 0 min 0 W/m 12,6 km/h (3 Bft) 91,49 %
28.09.2016 22:40 18,9 C 18,9 C 16,7 C 76 % 0 lf 1022,4 hPa 0,0 l/m 0 min 0 min 0 W/m 14,6 km/h (3 Bft) 93,62 %
28.09.2016 22:42 18,9 C 18,9 C 16,7 C 76 % 0 lf 1022,4 hPa 0,0 l/m 0 min 0 min 0 W/m 20,9 km/h (4 Bft) 93,48 %
28.09.2016 22:44 18,9 C 18,9 C 16,7 C 76 % 0 lf 1022,4 hPa 0,0 l/m 0 min 0 min 0 W/m 18,8 km/h (3 Bft) 95,74 %
28.09.2016 22:46 18,9 C 18,9 C 17,2 C 76 % 0 lf 1022,3 hPa 0,0 l/m 0 min 0 min 0 W/m 14,6 km/h (3 Bft) 95,74 %
28.09.2016 22:48 18,9 C 18,9 C 16,7 C 76 % 0 lf 1022,3 hPa 0,0 l/m 0 min 0 min 0 W/m 20,9 km/h (4 Bft) 95,74 %
28.09.2016 22:50 18,9 C 18,9 C 16,7 C 76 % 0 lf 1022,3 hPa 0,0 l/m 0 min 0 min 0 W/m 12,6 km/h (3 Bft) 93,62 %
28.09.2016 22:52 18,9 C 18,9 C 16,7 C 76 % 0 lf 1022,2 hPa 0,0 l/m 0 min 0 min 0 W/m 12,6 km/h (3 Bft) 91,49 %
28.09.2016 22:54 18,9 C 18,9 C 16,7 C 76 % 0 lf 1022,2 hPa 0,0 l/m 0 min 0 min 0 W/m 14,6 km/h (3 Bft) 95,65 %
28.09.2016 22:56 18,8 C 18,9 C 16,7 C 76 % 0 lf 1022,2 hPa 0,0 l/m 0 min 0 min 0 W/m 12,6 km/h (3 Bft) 97,87 %
28.09.2016 22:58 18,8 C 18,3 C 16,7 C 76 % 0 lf 1022,2 hPa 0,0 l/m 0 min 0 min 0 W/m 14,6 km/h (3 Bft) 97,87 %
28.09.2016 23:00 18,8 C 18,3 C 16,7 C 76 % 0 lf 1022,1 hPa 0,0 l/m 0 min 0 min 0 W/m 14,6 km/h (3 Bft) 97,87 %
28.09.2016 23:02 18,8 C 18,3 C 16,7 C 76 % 0 lf 1022,1 hPa 0,0 l/m 0 min 0 min 0 W/m 14,6 km/h (3 Bft) 95,74 %
28.09.2016 23:04 18,8 C 18,3 C 16,1 C 76 % 0 lf 1022,2 hPa 0,0 l/m 0 min 0 min 0 W/m 12,6 km/h (3 Bft) 95,74 %
28.09.2016 23:06 18,8 C 18,3 C 16,1 C 76 % 0 lf 1022,1 hPa 0,0 l/m 0 min 0 min 0 W/m 18,8 km/h (3 Bft) 97,62 %
28.09.2016 23:08 18,8 C 18,3 C 16,7 C 76 % 0 lf 1022,1 hPa 0,0 l/m 0 min 0 min 0 W/m 14,6 km/h (3 Bft) 95,65 %
28.09.2016 23:10 18,8 C 18,3 C 16,1 C 77 % 0 lf 1022,0 hPa 0,0 l/m 0 min 0 min 0 W/m 10,5 km/h (2 Bft) 93,62 %
28.09.2016 23:12 18,7 C 18,3 C 16,7 C 77 % 0 lf 1022,0 hPa 0,0 l/m 0 min 0 min 0 W/m 16,7 km/h (3 Bft) 97,87 %
28.09.2016 23:14 18,7 C 18,3 C 16,7 C 77 % 0 lf 1021,9 hPa 0,0 l/m 0 min 0 min 0 W/m 18,8 km/h (3 Bft) 97,87 %
28.09.2016 23:16 18,7 C 18,3 C 16,7 C 77 % 0 lf 1021,9 hPa 0,0 l/m 0 min 0 min 0 W/m 18,8 km/h (3 Bft) 91,49 %
28.09.2016 23:18 18,7 C 18,3 C 16,7 C 77 % 0 lf 1021,9 hPa 0,0 l/m 0 min 0 min 0 W/m 16,7 km/h (3 Bft) 95,74 %
28.09.2016 23:20 18,7 C 18,3 C 16,7 C 77 % 0 lf 1021,9 hPa 0,0 l/m 0 min 0 min 0 W/m 18,8 km/h (3 Bft) 95,65 %
28.09.2016 23:22 18,7 C 18,3 C 16,7 C 77 % 0 lf 1021,9 hPa 0,0 l/m 0 min 0 min 0 W/m 16,7 km/h (3 Bft) 97,87 %
28.09.2016 23:24 18,7 C 18,3 C 16,7 C 77 % 0 lf 1021,8 hPa 0,0 l/m 0 min 0 min 0 W/m 20,9 km/h (4 Bft) 95,74 %
28.09.2016 23:26 18,6 C 18,3 C 16,7 C 77 % 0 lf 1021,7 hPa 0,0 l/m 0 min 0 min 0 W/m 12,6 km/h (3 Bft) 97,87 %
28.09.2016 23:28 18,6 C 18,3 C 16,7 C 77 % 0 lf 1021,8 hPa 0,0 l/m 0 min 0 min 0 W/m 12,6 km/h (3 Bft) 93,62 %
28.09.2016 23:30 18,6 C 18,3 C 16,1 C 77 % 0 lf 1021,8 hPa 0,0 l/m 0 min 0 min 0 W/m 10,5 km/h (2 Bft) 95,65 %
28.09.2016 23:32 18,6 C 17,8 C 16,1 C 77 % 0 lf 1021,8 hPa 0,0 l/m 0 min 0 min 0 W/m 14,6 km/h (3 Bft) 91,49 %
28.09.2016 23:34 18,6 C 18,3 C 16,1 C 77 % 0 lf 1021,7 hPa 0,0 l/m 0 min 0 min 0 W/m 14,6 km/h (3 Bft) 100,00 %
28.09.2016 23:36 18,6 C 18,3 C 16,1 C 77 % 0 lf 1021,8 hPa 0,0 l/m 0 min 0 min 0 W/m 18,8 km/h (3 Bft) 100,00 %
28.09.2016 23:38 18,5 C 18,3 C 16,1 C 77 % 0 lf 1021,8 hPa 0,0 l/m 0 min 0 min 0 W/m 14,6 km/h (3 Bft) 100,00 %
28.09.2016 23:40 18,5 C 18,3 C 16,1 C 77 % 0 lf 1021,8 hPa 0,0 l/m 0 min 0 min 0 W/m 18,8 km/h (3 Bft) 100,00 %
28.09.2016 23:42 18,5 C 18,3 C 16,1 C 78 % 0 lf 1021,8 hPa 0,0 l/m 0 min 0 min 0 W/m 16,7 km/h (3 Bft) 100,00 %
28.09.2016 23:44 18,4 C 18,3 C 16,1 C 78 % 0 lf 1021,8 hPa 0,0 l/m 0 min 0 min 0 W/m 14,6 km/h (3 Bft) 97,87 %
28.09.2016 23:46 18,4 C 17,8 C 16,1 C 78 % 0 lf 1021,8 hPa 0,0 l/m 0 min 0 min 0 W/m 10,5 km/h (2 Bft) 100,00 %
28.09.2016 23:48 18,4 C 18,3 C 16,1 C 78 % 0 lf 1021,8 hPa 0,0 l/m 0 min 0 min 0 W/m 14,6 km/h (3 Bft) 100,00 %
28.09.2016 23:50 18,4 C 18,3 C 16,1 C 78 % 0 lf 1021,8 hPa 0,0 l/m 0 min 0 min 0 W/m 20,9 km/h (4 Bft) 95,74 %
28.09.2016 23:52 18,4 C 18,3 C 16,1 C 78 % 0 lf 1021,8 hPa 0,0 l/m 0 min 0 min 0 W/m 25,1 km/h (4 Bft) 97,87 %
28.09.2016 23:54 18,4 C 18,3 C 16,1 C 78 % 0 lf 1021,8 hPa 0,0 l/m 0 min 0 min 0 W/m 23,0 km/h (4 Bft) 100,00 %
28.09.2016 23:56 18,4 C 18,3 C 16,1 C 78 % 0 lf 1021,8 hPa 0,0 l/m 0 min 0 min 0 W/m 8,4 km/h (2 Bft) 100,00 %
28.09.2016 23:58 18,4 C 18,3 C 16,1 C 78 % 0 lf 1021,8 hPa 0,0 l/m 0 min 0 min 0 W/m 18,8 km/h (3 Bft) 100,00 %
_ Min-Zeit 00:00 00:20 01:00 17:06 00:00 23:26 - - - - 00:16 09:36
Minimum _ 13,4 C 13,9 C 10,6 C 58 % 0 lf 1021,7 hPa - - - - 4,2 km/h (1 Bft) 87,27 %
_ Max-Zeit 16:50 14:28 15:20 00:00 00:00 00:24 00:00 08:14 00:00 14:30 12:28 01:20
Maximum _ 23,2 C 30,6 C 23,3 C 85 % 0 lf 1025,3 hPa 0,0 l/m 2 min 0 min 1248 W/m 39,7 km/h
W-SW (6 Bft)
100,00 %
Durchschnitt _ 18,0 C 19,3 C 16,6 C 71 % 0 lf 1023,7 hPa #0,0 l/m #7:56 h #0 min. 213 W/m 17,3 km/h (3 Bft) 96,13 %
© 2016 W. Hausmann